Time,TemperatureF,DewpointF,PressureIn,WindDirection,WindDirectionDegrees,WindSpeedMPH,WindSpeedGustMPH,Humidity,HourlyPrecipIn,Conditions,Clouds,dailyrainin,SoftwareType,DateUTC
2013-03-05 00:00:00,34.3,-5.9,29.74,SSW,202,1.1,2.0,17,0.00,,,0.00,VWS V14.01,2013-03-05 05:00:00,
2013-03-05 00:05:00,34.3,-5.9,29.74,SSW,202,0.0,0.9,17,0.00,,,0.00,VWS V14.01,2013-03-05 05:05:00,
2013-03-05 00:10:00,34.2,-6.1,29.74,SSW,202,0.0,2.5,17,0.00,,,0.00,VWS V14.01,2013-03-05 05:10:00,
2013-03-05 00:15:00,34.0,-6.2,29.74,SSW,202,0.0,5.4,17,0.00,,,0.00,VWS V14.01,2013-03-05 05:15:00,
2013-03-05 00:20:00,34.0,-6.2,29.74,SSW,202,1.3,2.5,17,0.00,,,0.00,VWS V14.01,2013-03-05 05:20:00,
2013-03-05 00:25:00,33.8,-6.4,29.74,SSW,202,0.0,0.9,17,0.00,,,0.00,VWS V14.01,2013-03-05 05:25:00,
2013-03-05 00:30:00,33.8,-6.4,29.74,SSW,202,0.0,0.9,17,0.00,,,0.00,VWS V14.01,2013-03-05 05:30:00,
2013-03-05 00:31:00,33.8,-6.4,29.74,SSW,202,4.0,4.0,17,0.00,,,0.00,VWS V14.01,2013-03-05 05:31:00,
2013-03-05 00:35:00,33.6,-5.3,29.74,SSW,202,0.0,0.0,18,0.00,,,0.00,VWS V14.01,2013-03-05 05:35:00,
2013-03-05 00:36:00,33.6,-5.3,29.74,SSW,202,0.0,0.0,18,0.00,,,0.00,VWS V14.01,2013-03-05 05:36:00,
2013-03-05 00:40:00,33.6,-5.3,29.74,SSW,202,0.0,0.0,18,0.00,,,0.00,VWS V14.01,2013-03-05 05:40:00,
2013-03-05 00:41:00,33.6,-5.3,29.74,SSW,202,0.0,0.0,18,0.00,,,0.00,VWS V14.01,2013-03-05 05:41:00,
2013-03-05 00:45:00,33.6,-5.3,29.74,SSW,202,0.0,1.6,18,0.00,,,0.00,VWS V14.01,2013-03-05 05:45:00,
2013-03-05 00:46:00,33.6,-5.3,29.74,SSW,202,0.0,1.6,18,0.00,,,0.00,VWS V14.01,2013-03-05 05:46:00,
2013-03-05 00:51:00,33.6,-5.3,29.74,SSW,202,0.0,0.0,18,0.00,,,0.00,VWS V14.01,2013-03-05 05:51:00,
2013-03-05 00:56:00,33.8,-6.4,29.76,SSW,202,0.0,0.0,17,0.00,,,0.00,VWS V14.01,2013-03-05 05:56:00,
2013-03-05 01:01:00,33.8,-6.4,29.76,SSW,202,0.9,2.5,17,0.00,,,0.00,VWS V14.01,2013-03-05 06:01:00,
2013-03-05 01:06:00,33.8,-6.4,29.76,SSW,202,0.0,0.0,17,0.00,,,0.00,VWS V14.01,2013-03-05 06:06:00,
2013-03-05 01:11:00,33.8,-6.4,29.76,SSW,202,0.9,2.2,17,0.00,,,0.00,VWS V14.01,2013-03-05 06:11:00,
2013-03-05 01:16:00,33.8,-6.4,29.76,SSW,202,2.5,3.6,17,0.00,,,0.00,VWS V14.01,2013-03-05 06:16:00,
2013-03-05 01:17:00,33.8,-3.0,29.76,SSW,202,0.0,0.0,20,0.00,,,0.00,VWS V14.01,2013-03-05 06:17:00,
2013-03-05 01:21:00,33.8,-3.0,29.76,SSW,202,0.9,4.0,20,0.00,,,0.00,VWS V14.01,2013-03-05 06:21:00,
2013-03-05 01:22:00,33.8,-6.4,29.76,SSW,202,4.9,4.9,17,0.00,,,0.00,VWS V14.01,2013-03-05 06:22:00,
2013-03-05 01:26:00,33.8,-6.4,29.76,SSW,202,0.0,0.0,17,0.00,,,0.00,VWS V14.01,2013-03-05 06:26:00,
2013-03-05 01:27:00,33.8,-6.4,29.76,SSW,202,0.9,2.7,17,0.00,,,0.00,VWS V14.01,2013-03-05 06:27:00,
2013-03-05 01:31:00,33.8,-6.4,29.76,SSW,202,0.0,3.6,17,0.00,,,0.00,VWS V14.01,2013-03-05 06:31:00,
2013-03-05 01:32:00,33.8,-6.4,29.76,SSW,202,0.0,0.0,17,0.00,,,0.00,VWS V14.01,2013-03-05 06:32:00,
2013-03-05 01:36:00,33.8,-6.4,29.76,SSW,202,0.0,0.0,17,0.00,,,0.00,VWS V14.01,2013-03-05 06:36:00,
2013-03-05 01:37:00,33.8,-6.4,29.76,SSW,202,0.0,0.0,17,0.00,,,0.00,VWS V14.01,2013-03-05 06:37:00,
2013-03-05 01:41:00,33.8,-6.4,29.76,SSW,202,0.0,1.3,17,0.00,,,0.00,VWS V14.01,2013-03-05 06:41:00,
2013-03-05 01:42:00,33.8,-6.4,29.76,SSW,202,0.0,1.3,17,0.00,,,0.00,VWS V14.01,2013-03-05 06:42:00,
2013-03-05 01:47:00,33.8,-3.0,29.76,SW,225,3.8,3.8,20,0.00,,,0.00,VWS V14.01,2013-03-05 06:47:00,
2013-03-05 01:52:00,33.8,-3.0,29.76,SW,225,0.0,0.0,20,0.00,,,0.00,VWS V14.01,2013-03-05 06:52:00,
2013-03-05 01:57:00,34.0,-2.9,29.76,SW,225,0.0,0.0,20,0.00,,,0.00,VWS V14.01,2013-03-05 06:57:00,
2013-03-05 02:02:00,34.0,-2.9,29.76,SW,225,0.0,0.0,20,0.00,,,0.00,VWS V14.01,2013-03-05 07:02:00,
2013-03-05 02:03:00,34.0,-2.9,29.76,SW,225,2.9,2.9,20,0.00,,,0.00,VWS V14.01,2013-03-05 07:03:00,
2013-03-05 02:07:00,33.8,-3.0,29.76,SW,225,0.0,0.0,20,0.00,,,0.00,VWS V14.01,2013-03-05 07:07:00,
2013-03-05 02:08:00,33.8,-3.0,29.76,SW,225,0.0,0.0,20,0.00,,,0.00,VWS V14.01,2013-03-05 07:08:00,
2013-03-05 02:12:00,33.8,-3.0,29.76,SSW,202,0.0,0.0,20,0.00,,,0.00,VWS V14.01,2013-03-05 07:12:00,
2013-03-05 02:13:00,33.8,-3.0,29.76,SSW,202,0.0,0.0,20,0.00,,,0.00,VWS V14.01,2013-03-05 07:13:00,
2013-03-05 02:17:00,33.8,-3.0,29.76,SSW,202,0.0,0.0,20,0.00,,,0.00,VWS V14.01,2013-03-05 07:17:00,
2013-03-05 02:18:00,33.8,-3.0,29.76,SSW,202,0.0,0.0,20,0.00,,,0.00,VWS V14.01,2013-03-05 07:18:00,
2013-03-05 02:22:00,33.8,-3.0,29.76,SSW,202,0.0,4.5,20,0.00,,,0.00,VWS V14.01,2013-03-05 07:22:00,
2013-03-05 02:23:00,33.8,-3.0,29.76,SSW,202,0.0,0.0,20,0.00,,,0.00,VWS V14.01,2013-03-05 07:23:00,
2013-03-05 02:27:00,33.8,-3.0,29.76,SSW,202,0.0,0.0,20,0.00,,,0.00,VWS V14.01,2013-03-05 07:27:00,
2013-03-05 02:28:00,33.8,-3.0,29.76,SSW,202,0.0,0.0,20,0.00,,,0.00,VWS V14.01,2013-03-05 07:28:00,
2013-03-05 02:32:00,33.8,-3.0,29.76,SSW,202,0.0,0.0,20,0.00,,,0.00,VWS V14.01,2013-03-05 07:32:00,
2013-03-05 02:33:00,33.8,-3.0,29.76,SSW,202,0.0,0.0,20,0.00,,,0.00,VWS V14.01,2013-03-05 07:33:00,
2013-03-05 02:37:00,33.6,-3.2,29.76,SSW,202,0.0,0.0,20,0.00,,,0.00,VWS V14.01,2013-03-05 07:37:00,
2013-03-05 02:38:00,33.6,-3.2,29.76,SSW,202,0.0,0.0,20,0.00,,,0.00,VWS V14.01,2013-03-05 07:38:00,
2013-03-05 02:42:00,33.6,-3.2,29.76,SSW,202,2.2,2.2,20,0.00,,,0.00,VWS V14.01,2013-03-05 07:42:00,
2013-03-05 02:43:00,33.6,-3.2,29.76,SSW,202,2.2,2.2,20,0.00,,,0.00,VWS V14.01,2013-03-05 07:43:00,
2013-03-05 02:48:00,33.6,-3.2,29.76,SSW,202,0.0,0.0,20,0.00,,,0.00,VWS V14.01,2013-03-05 07:48:00,
2013-03-05 02:53:00,33.6,-3.2,29.76,SSW,202,0.0,0.9,20,0.00,,,0.00,VWS V14.01,2013-03-05 07:53:00,
2013-03-05 02:54:00,33.6,-3.2,29.76,SSW,202,0.0,0.0,20,0.00,,,0.00,VWS V14.01,2013-03-05 07:54:00,
2013-03-05 02:58:00,33.6,-3.2,29.76,SSW,202,0.0,0.0,20,0.00,,,0.00,VWS V14.01,2013-03-05 07:58:00,
2013-03-05 02:59:00,33.6,-3.2,29.76,SSW,202,0.0,0.0,20,0.00,,,0.00,VWS V14.01,2013-03-05 07:59:00,
2013-03-05 03:03:00,33.4,-3.3,29.76,SSW,202,0.0,0.0,20,0.00,,,0.00,VWS V14.01,2013-03-05 08:03:00,
2013-03-05 03:04:00,33.4,-3.3,29.76,SSW,202,0.0,0.0,20,0.00,,,0.00,VWS V14.01,2013-03-05 08:04:00,
2013-03-05 03:08:00,33.3,-3.5,29.76,SSW,202,0.0,0.0,20,0.00,,,0.00,VWS V14.01,2013-03-05 08:08:00,
2013-03-05 03:09:00,33.3,-3.5,29.76,SSW,202,0.0,0.0,20,0.00,,,0.00,VWS V14.01,2013-03-05 08:09:00,
2013-03-05 03:13:00,33.3,-3.5,29.76,SSW,202,0.0,3.4,20,0.00,,,0.00,VWS V14.01,2013-03-05 08:13:00,
2013-03-05 03:14:00,33.3,-3.5,29.76,SSW,202,0.0,0.0,20,0.00,,,0.00,VWS V14.01,2013-03-05 08:14:00,
2013-03-05 03:18:00,33.1,-3.6,29.76,SSW,202,0.0,0.0,20,0.00,,,0.00,VWS V14.01,2013-03-05 08:18:00,
2013-03-05 03:19:00,33.1,-3.6,29.76,SSW,202,0.0,0.0,20,0.00,,,0.00,VWS V14.01,2013-03-05 08:19:00,
2013-03-05 03:23:00,32.9,-3.8,29.76,SSW,202,0.0,1.3,20,0.00,,,0.00,VWS V14.01,2013-03-05 08:23:00,
2013-03-05 03:24:00,32.9,-3.8,29.76,SSW,202,0.0,1.1,20,0.00,,,0.00,VWS V14.01,2013-03-05 08:24:00,
2013-03-05 03:28:00,32.7,-3.9,29.76,SSW,202,3.1,3.1,20,0.00,,,0.00,VWS V14.01,2013-03-05 08:28:00,
2013-03-05 03:29:00,32.7,-3.9,29.76,SSW,202,0.0,3.1,20,0.00,,,0.00,VWS V14.01,2013-03-05 08:29:00,
2013-03-05 03:33:00,32.7,-3.9,29.76,SSW,202,0.0,0.9,20,0.00,,,0.00,VWS V14.01,2013-03-05 08:33:00,
2013-03-05 03:34:00,32.7,-3.9,29.76,SSW,202,0.0,0.9,20,0.00,,,0.00,VWS V14.01,2013-03-05 08:34:00,
2013-03-05 03:39:00,32.7,-3.9,29.76,SSW,202,2.0,2.5,20,0.00,,,0.00,VWS V14.01,2013-03-05 08:39:00,
2013-03-05 03:44:00,32.7,-3.9,29.76,SSW,202,2.5,2.5,20,0.00,,,0.00,VWS V14.01,2013-03-05 08:44:00,
2013-03-05 03:49:00,32.7,-3.9,29.76,SSW,202,0.0,0.9,20,0.00,,,0.00,VWS V14.01,2013-03-05 08:49:00,
2013-03-05 03:50:00,32.7,-3.9,29.76,SSW,202,0.0,0.0,20,0.00,,,0.00,VWS V14.01,2013-03-05 08:50:00,
2013-03-05 03:54:00,32.7,-3.9,29.76,SSW,202,0.0,1.1,20,0.00,,,0.00,VWS V14.01,2013-03-05 08:54:00,
2013-03-05 03:55:00,32.7,-3.9,29.76,SSW,202,0.0,0.0,20,0.00,,,0.00,VWS V14.01,2013-03-05 08:55:00,
2013-03-05 03:59:00,32.5,-4.1,29.76,SSW,202,0.0,0.9,20,0.00,,,0.00,VWS V14.01,2013-03-05 08:59:00,
2013-03-05 04:00:00,32.5,-4.1,29.76,SSW,202,0.0,0.0,20,0.00,,,0.00,VWS V14.01,2013-03-05 09:00:00,
2013-03-05 04:04:00,32.5,-4.1,29.76,SSW,202,0.0,0.0,20,0.00,,,0.00,VWS V14.01,2013-03-05 09:04:00,
2013-03-05 04:05:00,32.5,-4.1,29.76,SSW,202,0.0,0.0,20,0.00,,,0.00,VWS V14.01,2013-03-05 09:05:00,
2013-03-05 04:09:00,32.4,-4.2,29.76,SSW,202,0.0,0.0,20,0.00,,,0.00,VWS V14.01,2013-03-05 09:09:00,
2013-03-05 04:10:00,32.4,-4.2,29.76,SSW,202,0.0,0.0,20,0.00,,,0.00,VWS V14.01,2013-03-05 09:10:00,
2013-03-05 04:14:00,32.2,-4.4,29.76,SSW,202,0.0,0.0,20,0.00,,,0.00,VWS V14.01,2013-03-05 09:14:00,
2013-03-05 04:15:00,32.2,-4.4,29.76,SSW,202,0.0,0.0,20,0.00,,,0.00,VWS V14.01,2013-03-05 09:15:00,
2013-03-05 04:20:00,32.2,-4.4,29.76,SSW,202,0.0,0.0,20,0.00,,,0.00,VWS V14.01,2013-03-05 09:20:00,
2013-03-05 04:25:00,32.0,-4.5,29.79,SSW,202,0.0,0.0,20,0.00,,,0.00,VWS V14.01,2013-03-05 09:25:00,
2013-03-05 04:30:00,32.0,-4.5,29.79,SSW,202,0.0,0.0,20,0.00,,,0.00,VWS V14.01,2013-03-05 09:30:00,
2013-03-05 04:35:00,31.8,-4.7,29.79,SSW,202,0.0,0.0,20,0.00,,,0.00,VWS V14.01,2013-03-05 09:35:00,
2013-03-05 04:40:00,31.6,-4.8,29.79,SSW,202,0.0,0.0,20,0.00,,,0.00,VWS V14.01,2013-03-05 09:40:00,
2013-03-05 04:45:00,31.6,-4.8,29.79,SSW,202,0.0,0.0,20,0.00,,,0.00,VWS V14.01,2013-03-05 09:45:00,
2013-03-05 04:50:00,31.5,-5.0,29.79,SSW,202,0.0,0.0,20,0.00,,,0.00,VWS V14.01,2013-03-05 09:50:00,
2013-03-05 04:55:00,31.3,-5.1,29.79,SSW,202,0.0,0.0,20,0.00,,,0.00,VWS V14.01,2013-03-05 09:55:00,
2013-03-05 04:56:00,31.3,-5.1,29.79,SSW,202,0.0,0.0,20,0.00,,,0.00,VWS V14.01,2013-03-05 09:56:00,
2013-03-05 05:00:00,31.1,-5.3,29.79,SSW,202,0.0,0.0,20,0.00,,,0.00,VWS V14.01,2013-03-05 10:00:00,
2013-03-05 05:01:00,31.1,-5.3,29.79,SSW,202,0.0,0.0,20,0.00,,,0.00,VWS V14.01,2013-03-05 10:01:00,
2013-03-05 05:05:00,31.1,-5.3,29.79,SSW,202,0.0,0.0,20,0.00,,,0.00,VWS V14.01,2013-03-05 10:05:00,
2013-03-05 05:06:00,31.1,-5.3,29.79,SSW,202,0.0,0.0,20,0.00,,,0.00,VWS V14.01,2013-03-05 10:06:00,
2013-03-05 05:10:00,30.9,-5.4,29.79,SSW,202,0.0,0.0,20,0.00,,,0.00,VWS V14.01,2013-03-05 10:10:00,
2013-03-05 05:11:00,30.9,-5.4,29.79,SSW,202,0.0,0.0,20,0.00,,,0.00,VWS V14.01,2013-03-05 10:11:00,
2013-03-05 05:15:00,30.7,-5.6,29.79,SSW,202,0.0,0.0,20,0.00,,,0.00,VWS V14.01,2013-03-05 10:15:00,
2013-03-05 05:16:00,30.7,-5.6,29.79,SSW,202,0.0,0.0,20,0.00,,,0.00,VWS V14.01,2013-03-05 10:16:00,
2013-03-05 05:20:00,30.7,-5.6,29.79,SSW,202,0.0,0.0,20,0.00,,,0.00,VWS V14.01,2013-03-05 10:20:00,
2013-03-05 05:21:00,30.7,-5.6,29.79,SSW,202,0.0,0.0,20,0.00,,,0.00,VWS V14.01,2013-03-05 10:21:00,
2013-03-05 05:25:00,30.7,-5.6,29.79,SSW,202,0.0,0.0,20,0.00,,,0.00,VWS V14.01,2013-03-05 10:25:00,
2013-03-05 05:26:00,30.7,-5.6,29.79,SSW,202,0.0,0.0,20,0.00,,,0.00,VWS V14.01,2013-03-05 10:26:00,
2013-03-05 05:31:00,30.6,-5.7,29.79,SSW,202,0.0,0.0,20,0.00,,,0.00,VWS V14.01,2013-03-05 10:31:00,
2013-03-05 05:36:00,30.4,-5.9,29.79,SSW,202,0.0,0.0,20,0.00,,,0.00,VWS V14.01,2013-03-05 10:36:00,
2013-03-05 05:37:00,30.4,-5.9,29.79,SSW,202,0.0,0.0,20,0.00,,,0.00,VWS V14.01,2013-03-05 10:37:00,
2013-03-05 05:41:00,30.4,-5.9,29.79,SSW,202,0.0,0.0,20,0.00,,,0.00,VWS V14.01,2013-03-05 10:41:00,
2013-03-05 05:42:00,30.4,-5.9,29.79,SSW,202,0.0,0.0,20,0.00,,,0.00,VWS V14.01,2013-03-05 10:42:00,
2013-03-05 05:46:00,30.2,-6.0,29.79,SSW,202,0.0,0.0,20,0.00,,,0.00,VWS V14.01,2013-03-05 10:46:00,
2013-03-05 05:47:00,30.2,-6.0,29.79,SSW,202,0.0,0.0,20,0.00,,,0.00,VWS V14.01,2013-03-05 10:47:00,
2013-03-05 05:51:00,30.2,-6.0,29.79,SSW,202,0.0,0.0,20,0.00,,,0.00,VWS V14.01,2013-03-05 10:51:00,
2013-03-05 05:52:00,30.2,-6.0,29.79,SSW,202,0.0,0.0,20,0.00,,,0.00,VWS V14.01,2013-03-05 10:52:00,
2013-03-05 05:56:00,30.2,-6.0,29.79,SSW,202,0.0,0.0,20,0.00,,,0.00,VWS V14.01,2013-03-05 10:56:00,
2013-03-05 05:57:00,30.2,-6.0,29.79,SSW,202,0.0,0.0,20,0.00,,,0.00,VWS V14.01,2013-03-05 10:57:00,
2013-03-05 06:01:00,30.0,-6.2,29.79,SSW,202,0.0,0.0,20,0.00,,,0.00,VWS V14.01,2013-03-05 11:01:00,
2013-03-05 06:02:00,30.0,-6.2,29.79,SSW,202,0.0,0.0,20,0.00,,,0.00,VWS V14.01,2013-03-05 11:02:00,
2013-03-05 06:06:00,30.0,-6.2,29.79,SSW,202,0.0,0.0,20,0.00,,,0.00,VWS V14.01,2013-03-05 11:06:00,
2013-03-05 06:07:00,30.0,-6.2,29.79,SSW,202,0.0,0.0,20,0.00,,,0.00,VWS V14.01,2013-03-05 11:07:00,
2013-03-05 06:11:00,29.8,-6.3,29.79,SSW,202,0.0,0.0,20,0.00,,,0.00,VWS V14.01,2013-03-05 11:11:00,
2013-03-05 06:12:00,29.8,-6.3,29.79,SSW,202,0.0,0.0,20,0.00,,,0.00,VWS V14.01,2013-03-05 11:12:00,
2013-03-05 06:13:00,29.8,-6.3,29.79,SSW,202,0.0,0.0,20,0.00,,,0.00,VWS V14.01,2013-03-05 11:13:00,
2013-03-05 06:16:00,29.8,-6.3,29.79,SSW,202,0.0,0.0,20,0.00,,,0.00,VWS V14.01,2013-03-05 11:16:00,
2013-03-05 06:17:00,29.8,-6.3,29.79,SSW,202,0.0,0.0,20,0.00,,,0.00,VWS V14.01,2013-03-05 11:17:00,
2013-03-05 06:18:00,29.8,-6.3,29.79,SSW,202,0.0,0.0,20,0.00,,,0.00,VWS V14.01,2013-03-05 11:18:00,
2013-03-05 06:21:00,29.7,-6.5,29.79,SSW,202,0.0,0.0,20,0.00,,,0.00,VWS V14.01,2013-03-05 11:21:00,
2013-03-05 06:22:00,29.7,-6.5,29.79,SSW,202,0.0,0.0,20,0.00,,,0.00,VWS V14.01,2013-03-05 11:22:00,
2013-03-05 06:23:00,29.7,-6.5,29.79,SSW,202,0.0,0.0,20,0.00,,,0.00,VWS V14.01,2013-03-05 11:23:00,
2013-03-05 06:26:00,29.7,-6.5,29.79,SSW,202,0.0,0.0,20,0.00,,,0.00,VWS V14.01,2013-03-05 11:26:00,
2013-03-05 06:27:00,29.7,-6.5,29.79,SSW,202,0.0,0.0,20,0.00,,,0.00,VWS V14.01,2013-03-05 11:27:00,
2013-03-05 06:28:00,29.7,-6.5,29.79,SSW,202,0.0,0.0,20,0.00,,,0.00,VWS V14.01,2013-03-05 11:28:00,
2013-03-05 06:31:00,29.5,-6.6,29.79,SSW,202,0.0,0.0,20,0.00,,,0.00,VWS V14.01,2013-03-05 11:31:00,
2013-03-05 06:32:00,29.5,-6.6,29.79,SSW,202,0.0,0.0,20,0.00,,,0.00,VWS V14.01,2013-03-05 11:32:00,
2013-03-05 06:33:00,29.5,-6.6,29.79,SSW,202,0.0,0.0,20,0.00,,,0.00,VWS V14.01,2013-03-05 11:33:00,
2013-03-05 06:36:00,29.5,-6.6,29.79,SSW,202,0.0,0.0,20,0.00,,,0.00,VWS V14.01,2013-03-05 11:36:00,
2013-03-05 06:37:00,29.5,-6.6,29.79,SSW,202,0.0,0.0,20,0.00,,,0.00,VWS V14.01,2013-03-05 11:37:00,
2013-03-05 06:39:00,29.5,-6.6,29.79,SSW,202,0.0,0.0,20,0.00,,,0.00,VWS V14.01,2013-03-05 11:39:00,
2013-03-05 06:41:00,29.5,-6.6,29.79,SSW,202,0.0,0.0,20,0.00,,,0.00,VWS V14.01,2013-03-05 11:41:00,
2013-03-05 06:42:00,29.7,-6.5,29.79,SSW,202,0.0,0.0,20,0.00,,,0.00,VWS V14.01,2013-03-05 11:42:00,
2013-03-05 06:43:00,29.7,-6.5,29.79,SSW,202,0.0,0.0,20,0.00,,,0.00,VWS V14.01,2013-03-05 11:43:00,
2013-03-05 06:44:00,29.7,-6.5,29.79,SSW,202,0.0,0.0,20,0.00,,,0.00,VWS V14.01,2013-03-05 11:44:00,
2013-03-05 06:46:00,29.7,-6.5,29.79,SSW,202,0.0,0.0,20,0.00,,,0.00,VWS V14.01,2013-03-05 11:46:00,
2013-03-05 06:47:00,29.7,-6.5,29.79,SSW,202,0.0,0.0,20,0.00,,,0.00,VWS V14.01,2013-03-05 11:47:00,
2013-03-05 06:48:00,29.8,-6.3,29.79,SSW,202,0.0,0.0,20,0.00,,,0.00,VWS V14.01,2013-03-05 11:48:00,
2013-03-05 06:49:00,29.8,-6.3,29.79,SSW,202,0.0,0.0,20,0.00,,,0.00,VWS V14.01,2013-03-05 11:49:00,
2013-03-05 06:51:00,30.0,-6.2,29.79,SSW,202,0.0,0.0,20,0.00,,,0.00,VWS V14.01,2013-03-05 11:51:00,
2013-03-05 06:52:00,30.0,-6.2,29.79,SSW,202,0.0,0.0,20,0.00,,,0.00,VWS V14.01,2013-03-05 11:52:00,
2013-03-05 06:53:00,30.0,-6.2,29.79,SSW,202,0.0,0.0,20,0.00,,,0.00,VWS V14.01,2013-03-05 11:53:00,
2013-03-05 06:54:00,30.0,-6.2,29.82,SSW,202,0.0,0.0,20,0.00,,,0.00,VWS V14.01,2013-03-05 11:54:00,
2013-03-05 06:57:00,30.2,-6.0,29.82,SSW,202,0.0,0.0,20,0.00,,,0.00,VWS V14.01,2013-03-05 11:57:00,
2013-03-05 06:58:00,30.2,-6.0,29.82,SSW,202,0.0,0.0,20,0.00,,,0.00,VWS V14.01,2013-03-05 11:58:00,
2013-03-05 06:59:00,30.2,-6.0,29.82,SSW,202,0.0,0.0,20,0.00,,,0.00,VWS V14.01,2013-03-05 11:59:00,
2013-03-05 07:02:00,30.4,-5.9,29.82,SSW,202,0.0,0.0,20,0.00,,,0.00,VWS V14.01,2013-03-05 12:02:00,
2013-03-05 07:03:00,30.4,-5.9,29.82,SSW,202,0.0,0.0,20,0.00,,,0.00,VWS V14.01,2013-03-05 12:03:00,
2013-03-05 07:04:00,30.6,-5.7,29.82,SSW,202,0.0,0.0,20,0.00,,,0.00,VWS V14.01,2013-03-05 12:04:00,
2013-03-05 07:07:00,30.7,-5.6,29.82,SSW,202,0.0,0.0,20,0.00,,,0.00,VWS V14.01,2013-03-05 12:07:00,
2013-03-05 07:08:00,30.7,-5.6,29.82,SSW,202,0.0,0.0,20,0.00,,,0.00,VWS V14.01,2013-03-05 12:08:00,
2013-03-05 07:09:00,30.7,-5.6,29.82,SSW,202,0.0,0.0,20,0.00,,,0.00,VWS V14.01,2013-03-05 12:09:00,
2013-03-05 07:12:00,30.9,-5.4,29.82,SSW,202,0.0,0.0,20,0.00,,,0.00,VWS V14.01,2013-03-05 12:12:00,
2013-03-05 07:13:00,31.1,-5.3,29.82,SSW,202,0.0,0.0,20,0.00,,,0.00,VWS V14.01,2013-03-05 12:13:00,
2013-03-05 07:14:00,31.1,-5.3,29.82,SSW,202,0.0,0.0,20,0.00,,,0.00,VWS V14.01,2013-03-05 12:14:00,
2013-03-05 07:17:00,31.5,-5.0,29.82,SSW,202,0.0,0.0,20,0.00,,,0.00,VWS V14.01,2013-03-05 12:17:00,
2013-03-05 07:18:00,31.5,-5.0,29.82,SSW,202,0.0,0.0,20,0.00,,,0.00,VWS V14.01,2013-03-05 12:18:00,
2013-03-05 07:19:00,31.5,-5.0,29.82,SSW,202,0.0,0.0,20,0.00,,,0.00,VWS V14.01,2013-03-05 12:19:00,
2013-03-05 07:22:00,31.8,-4.7,29.82,SSW,202,0.0,0.0,20,0.00,,,0.00,VWS V14.01,2013-03-05 12:22:00,
2013-03-05 07:23:00,31.8,-4.7,29.82,SSW,202,0.0,0.0,20,0.00,,,0.00,VWS V14.01,2013-03-05 12:23:00,
2013-03-05 07:24:00,32.0,-4.5,29.82,SSW,202,0.0,0.0,20,0.00,,,0.00,VWS V14.01,2013-03-05 12:24:00,
2013-03-05 07:27:00,32.2,-4.4,29.82,SSW,202,0.0,0.0,20,0.00,,,0.00,VWS V14.01,2013-03-05 12:27:00,
2013-03-05 07:28:00,32.2,-4.4,29.82,SSW,202,0.0,0.0,20,0.00,,,0.00,VWS V14.01,2013-03-05 12:28:00,
2013-03-05 07:29:00,32.2,-4.4,29.82,SSW,202,0.0,0.0,20,0.00,,,0.00,VWS V14.01,2013-03-05 12:29:00,
2013-03-05 07:32:00,32.4,-4.2,29.82,SSW,202,0.0,0.0,20,0.00,,,0.00,VWS V14.01,2013-03-05 12:32:00,
2013-03-05 07:33:00,32.5,-4.1,29.82,SSW,202,0.0,1.1,20,0.00,,,0.00,VWS V14.01,2013-03-05 12:33:00,
2013-03-05 07:34:00,32.5,-4.1,29.82,SSW,202,0.0,0.0,20,0.00,,,0.00,VWS V14.01,2013-03-05 12:34:00,
2013-03-05 07:35:00,32.5,-4.1,29.82,SSW,202,0.0,0.0,20,0.00,,,0.00,VWS V14.01,2013-03-05 12:35:00,
2013-03-05 07:38:00,32.7,-3.9,29.82,SSW,202,0.0,0.0,20,0.00,,,0.00,VWS V14.01,2013-03-05 12:38:00,
2013-03-05 07:39:00,32.7,-3.9,29.82,SSW,202,0.0,0.0,20,0.00,,,0.00,VWS V14.01,2013-03-05 12:39:00,
2013-03-05 07:40:00,32.7,-3.9,29.82,SSW,202,0.0,0.0,20,0.00,,,0.00,VWS V14.01,2013-03-05 12:40:00,
2013-03-05 07:43:00,33.1,-3.6,29.82,SSW,202,0.0,0.0,20,0.00,,,0.00,VWS V14.01,2013-03-05 12:43:00,
2013-03-05 07:44:00,33.1,-3.6,29.82,SSW,202,0.0,3.4,20,0.00,,,0.00,VWS V14.01,2013-03-05 12:44:00,
2013-03-05 07:45:00,33.1,-3.6,29.82,SSW,202,0.0,0.0,20,0.00,,,0.00,VWS V14.01,2013-03-05 12:45:00,
2013-03-05 07:48:00,33.3,-3.5,29.82,SSW,202,0.0,0.0,20,0.00,,,0.00,VWS V14.01,2013-03-05 12:48:00,
2013-03-05 07:49:00,33.4,-3.3,29.82,SSW,202,0.0,0.0,20,0.00,,,0.00,VWS V14.01,2013-03-05 12:49:00,
2013-03-05 07:50:00,33.6,-3.2,29.82,SSW,202,0.0,0.0,20,0.00,,,0.00,VWS V14.01,2013-03-05 12:50:00,
2013-03-05 07:53:00,33.8,-3.0,29.82,SSW,202,0.0,0.0,20,0.00,,,0.00,VWS V14.01,2013-03-05 12:53:00,
2013-03-05 07:54:00,33.8,-3.0,29.85,SSW,202,0.0,0.0,20,0.00,,,0.00,VWS V14.01,2013-03-05 12:54:00,
2013-03-05 07:55:00,33.8,-3.0,29.85,SSW,202,0.0,0.0,20,0.00,,,0.00,VWS V14.01,2013-03-05 12:55:00,
2013-03-05 07:58:00,34.0,-2.9,29.85,SSW,202,0.0,0.0,20,0.00,,,0.00,VWS V14.01,2013-03-05 12:58:00,
2013-03-05 08:00:00,34.2,-2.7,29.85,SSW,202,0.0,0.0,20,0.00,,,0.00,VWS V14.01,2013-03-05 13:00:00,
2013-03-05 08:03:00,34.5,-2.4,29.85,SSW,202,0.0,0.0,20,0.00,,,0.00,VWS V14.01,2013-03-05 13:03:00,
2013-03-05 08:05:00,34.5,-2.4,29.85,SSW,202,0.0,0.0,20,0.00,,,0.00,VWS V14.01,2013-03-05 13:05:00,
2013-03-05 08:08:00,34.9,-2.1,29.85,SSW,202,0.0,0.0,20,0.00,,,0.00,VWS V14.01,2013-03-05 13:08:00,
2013-03-05 08:10:00,34.9,-2.1,29.85,SSW,202,0.0,0.0,20,0.00,,,0.00,VWS V14.01,2013-03-05 13:10:00,
2013-03-05 08:13:00,35.2,-1.8,29.85,SSW,202,0.0,0.0,20,0.00,,,0.00,VWS V14.01,2013-03-05 13:13:00,
2013-03-05 08:15:00,35.4,-1.6,29.85,SSW,202,0.0,0.0,20,0.00,,,0.00,VWS V14.01,2013-03-05 13:15:00,
2013-03-05 08:16:00,35.4,-1.6,29.85,SSW,202,0.0,0.0,20,0.00,,,0.00,VWS V14.01,2013-03-05 13:16:00,
2013-03-05 08:18:00,35.6,-2.6,29.85,SSW,202,0.0,0.0,19,0.00,,,0.00,VWS V14.01,2013-03-05 13:18:00,
2013-03-05 08:20:00,35.8,-2.4,29.85,SSW,202,0.0,0.0,19,0.00,,,0.00,VWS V14.01,2013-03-05 13:20:00,
2013-03-05 08:21:00,35.8,-2.4,29.85,SSW,202,2.0,2.0,19,0.00,,,0.00,VWS V14.01,2013-03-05 13:21:00,
2013-03-05 08:23:00,36.0,-2.3,29.85,SSW,202,0.0,0.0,19,0.00,,,0.00,VWS V14.01,2013-03-05 13:23:00,
2013-03-05 08:25:00,36.1,-2.1,29.85,SSW,202,0.0,1.1,19,0.00,,,0.00,VWS V14.01,2013-03-05 13:25:00,
2013-03-05 08:26:00,36.1,-2.1,29.85,SSW,202,0.0,0.0,19,0.00,,,0.00,VWS V14.01,2013-03-05 13:26:00,
2013-03-05 08:28:00,36.1,-2.1,29.85,SSW,202,0.0,0.0,19,0.00,,,0.00,VWS V14.01,2013-03-05 13:28:00,
2013-03-05 08:30:00,36.3,-2.0,29.85,SSW,202,0.0,0.0,19,0.00,,,0.00,VWS V14.01,2013-03-05 13:30:00,
2013-03-05 08:32:00,36.3,-2.0,29.85,SSW,202,0.0,0.0,19,0.00,,,0.00,VWS V14.01,2013-03-05 13:32:00,
2013-03-05 08:34:00,36.5,-1.8,29.85,SSW,202,0.0,0.0,19,0.00,,,0.00,VWS V14.01,2013-03-05 13:34:00,
2013-03-05 08:35:00,36.7,-1.7,29.85,SSW,202,0.0,0.0,19,0.00,,,0.00,VWS V14.01,2013-03-05 13:35:00,
2013-03-05 08:37:00,36.9,-1.5,29.85,SSW,202,0.0,0.9,19,0.00,,,0.00,VWS V14.01,2013-03-05 13:37:00,
2013-03-05 08:39:00,36.9,-1.5,29.85,SSW,202,0.0,0.0,19,0.00,,,0.00,VWS V14.01,2013-03-05 13:39:00,
2013-03-05 08:40:00,37.0,-1.4,29.82,SSW,202,0.0,0.0,19,0.00,,,0.00,VWS V14.01,2013-03-05 13:40:00,
2013-03-05 08:41:00,37.0,-1.4,29.82,SSW,202,0.0,0.0,19,0.00,,,0.00,VWS V14.01,2013-03-05 13:41:00,
2013-03-05 08:42:00,37.0,-1.4,29.82,SSW,202,0.0,0.0,19,0.00,,,0.00,VWS V14.01,2013-03-05 13:42:00,
2013-03-05 08:44:00,37.2,-1.2,29.82,SSW,202,0.0,0.0,19,0.00,,,0.00,VWS V14.01,2013-03-05 13:44:00,
2013-03-05 08:45:00,37.4,-1.1,29.82,SSW,202,0.0,0.0,19,0.00,,,0.00,VWS V14.01,2013-03-05 13:45:00,
2013-03-05 08:46:00,37.4,-1.1,29.82,SSW,202,0.9,2.0,19,0.00,,,0.00,VWS V14.01,2013-03-05 13:46:00,
2013-03-05 08:47:00,37.4,-1.1,29.82,SSW,202,0.0,0.0,19,0.00,,,0.00,VWS V14.01,2013-03-05 13:47:00,
2013-03-05 08:49:00,37.6,-0.9,29.82,SSW,202,0.0,0.0,19,0.00,,,0.00,VWS V14.01,2013-03-05 13:49:00,
2013-03-05 08:50:00,37.6,-0.9,29.82,SSW,202,0.9,0.9,19,0.00,,,0.00,VWS V14.01,2013-03-05 13:50:00,
2013-03-05 08:51:00,37.6,-0.9,29.82,SSW,202,0.0,0.0,19,0.00,,,0.00,VWS V14.01,2013-03-05 13:51:00,
2013-03-05 08:52:00,37.8,-0.8,29.82,SSW,202,0.0,0.0,19,0.00,,,0.00,VWS V14.01,2013-03-05 13:52:00,
2013-03-05 08:54:00,37.9,-0.6,29.85,SSW,202,0.0,0.9,19,0.00,,,0.00,VWS V14.01,2013-03-05 13:54:00,
2013-03-05 08:55:00,37.9,-0.6,29.85,SSW,202,0.0,0.0,19,0.00,,,0.00,VWS V14.01,2013-03-05 13:55:00,
2013-03-05 08:56:00,37.9,-0.6,29.85,SSW,202,0.0,1.6,19,0.00,,,0.00,VWS V14.01,2013-03-05 13:56:00,
2013-03-05 08:57:00,38.1,-0.5,29.85,SSW,202,0.0,0.9,19,0.00,,,0.00,VWS V14.01,2013-03-05 13:57:00,
2013-03-05 08:59:00,38.1,-0.5,29.85,SSW,202,0.0,0.0,19,0.00,,,0.00,VWS V14.01,2013-03-05 13:59:00,
2013-03-05 09:00:00,38.3,-0.3,29.85,SSW,202,0.0,0.0,19,0.00,,,0.00,VWS V14.01,2013-03-05 14:00:00,
2013-03-05 09:01:00,38.3,-0.3,29.85,SSW,202,0.0,0.0,19,0.00,,,0.00,VWS V14.01,2013-03-05 14:01:00,
2013-03-05 09:02:00,38.5,-0.2,29.85,SSW,202,0.0,0.0,19,0.00,,,0.00,VWS V14.01,2013-03-05 14:02:00,
2013-03-05 09:04:00,38.5,-0.2,29.85,SSW,202,0.0,0.0,19,0.00,,,0.00,VWS V14.01,2013-03-05 14:04:00,
2013-03-05 09:05:00,38.7,0.0,29.85,SSW,202,0.0,0.0,19,0.00,,,0.00,VWS V14.01,2013-03-05 14:05:00,
2013-03-05 09:06:00,38.7,0.0,29.85,SSW,202,0.0,0.0,19,0.00,,,0.00,VWS V14.01,2013-03-05 14:06:00,
2013-03-05 09:07:00,38.7,0.0,29.85,SSW,202,0.0,0.0,19,0.00,,,0.00,VWS V14.01,2013-03-05 14:07:00,
2013-03-05 09:09:00,38.8,0.1,29.85,SSW,202,0.0,0.0,19,0.00,,,0.00,VWS V14.01,2013-03-05 14:09:00,
2013-03-05 09:10:00,38.8,0.1,29.85,SSW,202,0.0,0.0,19,0.00,,,0.00,VWS V14.01,2013-03-05 14:10:00,
2013-03-05 09:11:00,39.0,0.3,29.85,SSW,202,0.0,0.0,19,0.00,,,0.00,VWS V14.01,2013-03-05 14:11:00,
2013-03-05 09:12:00,39.0,0.3,29.85,SSW,202,0.0,0.0,19,0.00,,,0.00,VWS V14.01,2013-03-05 14:12:00,
2013-03-05 09:14:00,39.2,-0.7,29.85,SSW,202,0.0,0.0,18,0.00,,,0.00,VWS V14.01,2013-03-05 14:14:00,
2013-03-05 09:16:00,39.4,-0.6,29.85,SSW,202,0.0,0.0,18,0.00,,,0.00,VWS V14.01,2013-03-05 14:16:00,
2013-03-05 09:17:00,39.4,-0.6,29.85,SSW,202,0.0,0.0,18,0.00,,,0.00,VWS V14.01,2013-03-05 14:17:00,
2013-03-05 09:19:00,39.6,-0.4,29.85,SSW,202,0.0,0.0,18,0.00,,,0.00,VWS V14.01,2013-03-05 14:19:00,
2013-03-05 09:21:00,39.7,-0.3,29.85,SSW,202,0.0,0.0,18,0.00,,,0.00,VWS V14.01,2013-03-05 14:21:00,
2013-03-05 09:23:00,39.9,-0.1,29.85,SSW,202,2.5,2.5,18,0.00,,,0.00,VWS V14.01,2013-03-05 14:23:00,
2013-03-05 09:24:00,39.9,-0.1,29.85,SSW,202,0.0,0.0,18,0.00,,,0.00,VWS V14.01,2013-03-05 14:24:00,
2013-03-05 09:26:00,40.1,0.0,29.85,SSW,202,0.0,4.3,18,0.00,,,0.00,VWS V14.01,2013-03-05 14:26:00,
2013-03-05 09:27:00,40.3,0.2,29.85,SSW,202,0.0,0.9,18,0.00,,,0.00,VWS V14.01,2013-03-05 14:27:00,
2013-03-05 09:29:00,40.3,0.2,29.85,SSW,202,0.0,0.0,18,0.00,,,0.00,VWS V14.01,2013-03-05 14:29:00,
2013-03-05 09:31:00,40.5,0.3,29.85,SSW,202,0.0,0.0,18,0.00,,,0.00,VWS V14.01,2013-03-05 14:31:00,
2013-03-05 09:33:00,40.5,0.3,29.85,SSW,202,0.0,0.0,18,0.00,,,0.00,VWS V14.01,2013-03-05 14:33:00,
2013-03-05 09:34:00,40.6,0.5,29.85,SSW,202,0.0,0.0,18,0.00,,,0.00,VWS V14.01,2013-03-05 14:34:00,
2013-03-05 09:36:00,40.8,0.6,29.85,SSW,202,0.0,0.9,18,0.00,,,0.00,VWS V14.01,2013-03-05 14:36:00,
2013-03-05 09:38:00,41.0,0.8,29.85,SSW,202,0.0,0.0,18,0.00,,,0.00,VWS V14.01,2013-03-05 14:38:00,
2013-03-05 09:39:00,41.0,0.8,29.85,SSW,202,0.0,0.0,18,0.00,,,0.00,VWS V14.01,2013-03-05 14:39:00,
2013-03-05 09:41:00,41.2,0.9,29.85,SSW,202,0.0,2.5,18,0.00,,,0.00,VWS V14.01,2013-03-05 14:41:00,
2013-03-05 09:43:00,41.4,1.0,29.85,SSW,202,0.0,0.0,18,0.00,,,0.00,VWS V14.01,2013-03-05 14:43:00,
2013-03-05 09:44:00,41.5,1.2,29.85,SSW,202,0.0,1.6,18,0.00,,,0.00,VWS V14.01,2013-03-05 14:44:00,
2013-03-05 09:46:00,41.5,1.2,29.85,SSW,202,0.0,0.0,18,0.00,,,0.00,VWS V14.01,2013-03-05 14:46:00,
2013-03-05 09:48:00,41.9,1.5,29.85,SSW,202,0.0,0.0,18,0.00,,,0.00,VWS V14.01,2013-03-05 14:48:00,
2013-03-05 09:49:00,42.1,1.6,29.85,SSW,202,0.0,0.0,18,0.00,,,0.00,VWS V14.01,2013-03-05 14:49:00,
2013-03-05 09:51:00,42.3,1.8,29.85,SSW,202,0.0,0.0,18,0.00,,,0.00,VWS V14.01,2013-03-05 14:51:00,
2013-03-05 09:53:00,42.4,1.9,29.85,SSW,202,0.0,0.0,18,0.00,,,0.00,VWS V14.01,2013-03-05 14:53:00,
2013-03-05 09:54:00,42.4,1.9,29.85,SSW,202,0.0,0.0,18,0.00,,,0.00,VWS V14.01,2013-03-05 14:54:00,
2013-03-05 09:56:00,42.8,2.2,29.85,SSW,202,0.0,2.5,18,0.00,,,0.00,VWS V14.01,2013-03-05 14:56:00,
2013-03-05 09:58:00,43.0,2.4,29.85,SSW,202,0.0,0.0,18,0.00,,,0.00,VWS V14.01,2013-03-05 14:58:00,
2013-03-05 09:59:00,43.2,2.5,29.85,SSW,202,0.0,0.0,18,0.00,,,0.00,VWS V14.01,2013-03-05 14:59:00,
2013-03-05 10:01:00,43.2,2.5,29.85,SSW,202,0.0,0.0,18,0.00,,,0.00,VWS V14.01,2013-03-05 15:01:00,
2013-03-05 10:03:00,43.5,2.8,29.85,SSW,202,0.0,0.0,18,0.00,,,0.00,VWS V14.01,2013-03-05 15:03:00,
2013-03-05 10:04:00,43.7,3.0,29.85,SSW,202,0.0,0.0,18,0.00,,,0.00,VWS V14.01,2013-03-05 15:04:00,
2013-03-05 10:06:00,43.9,3.1,29.85,SSW,202,0.0,0.0,18,0.00,,,0.00,VWS V14.01,2013-03-05 15:06:00,
2013-03-05 10:07:00,44.1,3.3,29.85,SSW,202,0.0,0.0,18,0.00,,,0.00,VWS V14.01,2013-03-05 15:07:00,
2013-03-05 10:08:00,44.2,3.4,29.85,SSW,202,0.0,0.0,18,0.00,,,0.00,VWS V14.01,2013-03-05 15:08:00,
2013-03-05 10:10:00,44.4,3.6,29.85,SSW,202,0.0,0.0,18,0.00,,,0.00,VWS V14.01,2013-03-05 15:10:00,
2013-03-05 10:11:00,44.8,2.6,29.85,SSW,202,0.0,0.0,17,0.00,,,0.00,VWS V14.01,2013-03-05 15:11:00,
2013-03-05 10:18:00,45.7,3.4,29.85,SSW,202,0.0,0.0,17,0.00,,,0.00,VWS V14.01,2013-03-05 15:18:00,
2013-03-05 10:19:00,45.7,3.4,29.85,SSW,202,0.0,0.0,17,0.00,,,0.00,VWS V14.01,2013-03-05 15:19:00,
2013-03-05 10:24:00,46.4,4.0,29.85,SSW,202,0.0,0.0,17,0.00,,,0.00,VWS V14.01,2013-03-05 15:24:00,
2013-03-05 10:29:00,47.1,4.6,29.85,SSW,202,0.0,0.0,17,0.00,,,0.00,VWS V14.01,2013-03-05 15:29:00,
2013-03-05 10:34:00,48.0,5.3,29.85,SSW,202,0.0,0.0,17,0.00,,,0.00,VWS V14.01,2013-03-05 15:34:00,
2013-03-05 10:39:00,48.9,4.7,29.85,SSW,202,0.0,0.0,16,0.00,,,0.00,VWS V14.01,2013-03-05 15:39:00,
2013-03-05 10:44:00,49.8,5.4,29.85,SSW,202,0.0,0.9,16,0.00,,,0.00,VWS V14.01,2013-03-05 15:44:00,
2013-03-05 10:49:00,51.1,6.5,29.85,SSW,202,0.0,0.0,16,0.00,,,0.00,VWS V14.01,2013-03-05 15:49:00,
2013-03-05 10:54:00,51.8,7.1,29.85,SSW,202,0.0,0.0,16,0.00,,,0.00,VWS V14.01,2013-03-05 15:54:00,
2013-03-05 10:59:00,53.1,8.1,29.85,SSW,202,0.0,0.0,16,0.00,,,0.00,VWS V14.01,2013-03-05 15:59:00,
2013-03-05 11:04:00,54.3,7.7,29.85,SSW,202,0.0,0.0,15,0.00,,,0.00,VWS V14.01,2013-03-05 16:04:00,
2013-03-05 11:05:00,54.3,7.7,29.85,SSW,202,0.0,0.0,15,0.00,,,0.00,VWS V14.01,2013-03-05 16:05:00,
2013-03-05 11:09:00,55.8,8.8,29.82,SSW,202,0.0,0.0,15,0.00,,,0.00,VWS V14.01,2013-03-05 16:09:00,
2013-03-05 11:10:00,55.8,8.8,29.82,SSW,202,0.0,0.0,15,0.00,,,0.00,VWS V14.01,2013-03-05 16:10:00,
2013-03-05 11:14:00,56.7,9.6,29.82,SSW,202,0.0,0.0,15,0.00,,,0.00,VWS V14.01,2013-03-05 16:14:00,
2013-03-05 11:15:00,56.8,9.7,29.82,SSW,202,0.0,0.0,15,0.00,,,0.00,VWS V14.01,2013-03-05 16:15:00,
2013-03-05 11:20:00,57.7,8.9,29.82,SSW,202,0.0,0.0,14,0.00,,,0.00,VWS V14.01,2013-03-05 16:20:00,
2013-03-05 11:25:00,58.8,9.8,29.85,SW,225,0.0,0.0,14,0.00,,,0.00,VWS V14.01,2013-03-05 16:25:00,
2013-03-05 11:30:00,60.1,10.8,29.85,SW,225,0.9,2.5,14,0.00,,,0.00,VWS V14.01,2013-03-05 16:30:00,
2013-03-05 11:35:00,61.0,11.5,29.85,SW,225,0.0,0.0,14,0.00,,,0.00,VWS V14.01,2013-03-05 16:35:00,
2013-03-05 11:40:00,61.9,12.2,29.85,SW,225,0.0,0.0,14,0.00,,,0.00,VWS V14.01,2013-03-05 16:40:00,
2013-03-05 11:41:00,61.9,12.2,29.85,SW,225,0.0,0.0,14,0.00,,,0.00,VWS V14.01,2013-03-05 16:41:00,
2013-03-05 11:45:00,62.6,11.1,29.85,SW,225,0.0,0.0,13,0.00,,,0.00,VWS V14.01,2013-03-05 16:45:00,
2013-03-05 11:46:00,62.8,11.2,29.85,SW,225,0.0,0.0,13,0.00,,,0.00,VWS V14.01,2013-03-05 16:46:00,
2013-03-05 11:50:00,63.5,11.8,29.85,SW,225,0.0,0.0,13,0.00,,,0.00,VWS V14.01,2013-03-05 16:50:00,
2013-03-05 11:51:00,63.5,11.8,29.85,SW,225,0.0,0.0,13,0.00,,,0.00,VWS V14.01,2013-03-05 16:51:00,
2013-03-05 11:55:00,64.2,12.4,29.85,SW,225,0.0,0.0,13,0.00,,,0.00,VWS V14.01,2013-03-05 16:55:00,
2013-03-05 11:56:00,64.4,12.5,29.85,SW,225,0.0,0.0,13,0.00,,,0.00,VWS V14.01,2013-03-05 16:56:00,
2013-03-05 12:00:00,65.3,13.2,29.85,SW,225,0.0,0.0,13,0.00,,,0.00,VWS V14.01,2013-03-05 17:00:00,
2013-03-05 12:01:00,65.5,13.4,29.85,SW,225,0.0,0.0,13,0.00,,,0.00,VWS V14.01,2013-03-05 17:01:00,
2013-03-05 12:05:00,65.8,13.6,29.85,SW,225,1.3,4.0,13,0.00,,,0.00,VWS V14.01,2013-03-05 17:05:00,
2013-03-05 12:06:00,65.8,13.6,29.85,SW,225,1.3,1.3,13,0.00,,,0.00,VWS V14.01,2013-03-05 17:06:00,
2013-03-05 12:10:00,66.4,12.3,29.85,SW,225,0.0,0.0,12,0.00,,,0.00,VWS V14.01,2013-03-05 17:10:00,
2013-03-05 12:11:00,66.4,12.3,29.85,SW,225,0.0,0.0,12,0.00,,,0.00,VWS V14.01,2013-03-05 17:11:00,
2013-03-05 12:15:00,67.3,13.0,29.85,SW,225,0.0,0.0,12,0.00,,,0.00,VWS V14.01,2013-03-05 17:15:00,
2013-03-05 12:16:00,67.3,13.0,29.85,SW,225,0.0,0.0,12,0.00,,,0.00,VWS V14.01,2013-03-05 17:16:00,
2013-03-05 12:20:00,68.4,13.8,29.85,SW,225,0.0,0.0,12,0.00,,,0.00,VWS V14.01,2013-03-05 17:20:00,
2013-03-05 12:21:00,68.5,13.9,29.85,SW,225,0.0,0.0,12,0.00,,,0.00,VWS V14.01,2013-03-05 17:21:00,
2013-03-05 12:25:00,69.6,14.8,29.85,SW,225,0.0,0.0,12,0.00,,,0.00,VWS V14.01,2013-03-05 17:25:00,
2013-03-05 12:26:00,69.6,14.8,29.85,SW,225,0.0,0.0,12,0.00,,,0.00,VWS V14.01,2013-03-05 17:26:00,
2013-03-05 12:30:00,70.5,15.5,29.85,SW,225,0.0,0.0,12,0.00,,,0.00,VWS V14.01,2013-03-05 17:30:00,
2013-03-05 12:31:00,70.5,15.5,29.85,SW,225,0.0,0.0,12,0.00,,,0.00,VWS V14.01,2013-03-05 17:31:00,
2013-03-05 12:36:00,70.7,15.6,29.85,SW,225,0.0,0.0,12,0.00,,,0.00,VWS V14.01,2013-03-05 17:36:00,
2013-03-05 12:41:00,70.2,15.2,29.85,SW,225,0.0,0.0,12,0.00,,,0.00,VWS V14.01,2013-03-05 17:41:00,
2013-03-05 12:42:00,70.2,15.2,29.85,SW,225,0.0,0.0,12,0.00,,,0.00,VWS V14.01,2013-03-05 17:42:00,
2013-03-05 12:46:00,70.3,15.4,29.85,SW,225,0.0,0.0,12,0.00,,,0.00,VWS V14.01,2013-03-05 17:46:00,
2013-03-05 12:47:00,70.3,15.4,29.85,SW,225,0.0,0.0,12,0.00,,,0.00,VWS V14.01,2013-03-05 17:47:00,
2013-03-05 12:51:00,70.2,15.2,29.85,SW,225,0.0,0.0,12,0.00,,,0.00,VWS V14.01,2013-03-05 17:51:00,
2013-03-05 12:52:00,70.0,15.1,29.85,SW,225,0.0,2.2,12,0.00,,,0.00,VWS V14.01,2013-03-05 17:52:00,
2013-03-05 12:56:00,69.6,14.8,29.82,SW,225,0.0,0.0,12,0.00,,,0.00,VWS V14.01,2013-03-05 17:56:00,
2013-03-05 12:57:00,69.6,14.8,29.82,SW,225,0.0,0.0,12,0.00,,,0.00,VWS V14.01,2013-03-05 17:57:00,
2013-03-05 13:01:00,70.0,15.1,29.82,SW,225,0.0,0.0,12,0.00,,,0.00,VWS V14.01,2013-03-05 18:01:00,
2013-03-05 13:02:00,70.2,15.2,29.82,SW,225,0.0,0.0,12,0.00,,,0.00,VWS V14.01,2013-03-05 18:02:00,
2013-03-05 13:06:00,70.7,15.6,29.82,SW,225,0.0,0.0,12,0.00,,,0.00,VWS V14.01,2013-03-05 18:06:00,
2013-03-05 13:07:00,70.9,15.8,29.82,SW,225,0.0,0.0,12,0.00,,,0.00,VWS V14.01,2013-03-05 18:07:00,
2013-03-05 13:11:00,70.5,15.5,29.82,SW,225,0.0,0.0,12,0.00,,,0.00,VWS V14.01,2013-03-05 18:11:00,
2013-03-05 13:12:00,70.5,15.5,29.82,SW,225,0.0,0.0,12,0.00,,,0.00,VWS V14.01,2013-03-05 18:12:00,
2013-03-05 13:16:00,71.2,16.1,29.82,SW,225,0.0,0.0,12,0.00,,,0.00,VWS V14.01,2013-03-05 18:16:00,
2013-03-05 13:17:00,71.2,16.1,29.82,SW,225,0.0,0.0,12,0.00,,,0.00,VWS V14.01,2013-03-05 18:17:00,
2013-03-05 13:22:00,71.4,16.2,29.82,SW,225,0.0,0.0,12,0.00,,,0.00,VWS V14.01,2013-03-05 18:22:00,
2013-03-05 13:27:00,71.1,15.9,29.82,SW,225,0.0,0.0,12,0.00,,,0.00,VWS V14.01,2013-03-05 18:27:00,
2013-03-05 13:32:00,71.2,16.1,29.82,SW,225,1.6,1.6,12,0.00,,,0.00,VWS V14.01,2013-03-05 18:32:00,
2013-03-05 13:37:00,71.2,16.1,29.82,SW,225,0.0,0.0,12,0.00,,,0.00,VWS V14.01,2013-03-05 18:37:00,
2013-03-05 13:42:00,72.1,14.8,29.79,SW,225,0.0,0.0,11,0.00,,,0.00,VWS V14.01,2013-03-05 18:42:00,
2013-03-05 13:43:00,72.5,15.0,29.79,SW,225,0.0,1.1,11,0.00,,,0.00,VWS V14.01,2013-03-05 18:43:00,
2013-03-05 13:47:00,73.4,15.7,29.79,SW,225,0.0,0.0,11,0.00,,,0.00,VWS V14.01,2013-03-05 18:47:00,
2013-03-05 13:48:00,73.4,15.7,29.79,SW,225,0.0,0.0,11,0.00,,,0.00,VWS V14.01,2013-03-05 18:48:00,
2013-03-05 13:52:00,73.9,16.1,29.79,SW,225,0.0,0.0,11,0.00,,,0.00,VWS V14.01,2013-03-05 18:52:00,
2013-03-05 13:53:00,73.9,16.1,29.79,SW,225,0.0,0.0,11,0.00,,,0.00,VWS V14.01,2013-03-05 18:53:00,
2013-03-05 13:57:00,74.5,16.6,29.82,SW,225,0.0,0.0,11,0.00,,,0.00,VWS V14.01,2013-03-05 18:57:00,
2013-03-05 13:58:00,74.5,16.6,29.82,SW,225,0.0,0.0,11,0.00,,,0.00,VWS V14.01,2013-03-05 18:58:00,
2013-03-05 14:02:00,75.4,15.1,29.82,SW,225,0.0,0.0,10,0.00,,,0.00,VWS V14.01,2013-03-05 19:02:00,
2013-03-05 14:03:00,75.6,15.2,29.82,SW,225,0.0,0.0,10,0.00,,,0.00,VWS V14.01,2013-03-05 19:03:00,
2013-03-05 14:04:00,76.1,15.6,29.82,SW,225,0.0,0.0,10,0.00,,,0.00,VWS V14.01,2013-03-05 19:04:00,
2013-03-05 14:07:00,76.6,16.0,29.82,SW,225,0.0,0.9,10,0.00,,,0.00,VWS V14.01,2013-03-05 19:07:00,
2013-03-05 14:08:00,76.8,16.2,29.82,SW,225,0.0,1.6,10,0.00,,,0.00,VWS V14.01,2013-03-05 19:08:00,
2013-03-05 14:09:00,77.0,16.3,29.82,SW,225,0.0,0.0,10,0.00,,,0.00,VWS V14.01,2013-03-05 19:09:00,
2013-03-05 14:12:00,77.5,16.7,29.82,SW,225,0.0,0.0,10,0.00,,,0.00,VWS V14.01,2013-03-05 19:12:00,
2013-03-05 14:13:00,77.9,17.0,29.82,SW,225,0.0,0.0,10,0.00,,,0.00,VWS V14.01,2013-03-05 19:13:00,
2013-03-05 14:14:00,78.1,17.1,29.82,SW,225,0.0,0.0,10,0.00,,,0.00,VWS V14.01,2013-03-05 19:14:00,
2013-03-05 14:17:00,78.8,17.7,29.82,SW,225,0.0,0.0,10,0.00,,,0.00,VWS V14.01,2013-03-05 19:17:00,
2013-03-05 14:18:00,78.8,17.7,29.82,SW,225,0.0,0.0,10,0.00,,,0.00,VWS V14.01,2013-03-05 19:18:00,
2013-03-05 14:20:00,79.2,18.0,29.82,SW,225,0.0,0.0,10,0.00,,,0.00,VWS V14.01,2013-03-05 19:20:00,
2013-03-05 14:22:00,79.0,17.8,29.82,SW,225,0.0,0.9,10,0.00,,,0.00,VWS V14.01,2013-03-05 19:22:00,
2013-03-05 14:23:00,78.8,17.7,29.82,SW,225,0.0,0.0,10,0.00,,,0.00,VWS V14.01,2013-03-05 19:23:00,
2013-03-05 14:25:00,79.0,17.8,29.82,SW,225,0.0,0.0,10,0.00,,,0.00,VWS V14.01,2013-03-05 19:25:00,
2013-03-05 14:27:00,79.0,17.8,29.82,SW,225,0.0,0.0,10,0.00,,,0.00,VWS V14.01,2013-03-05 19:27:00,
2013-03-05 14:28:00,78.8,17.7,29.82,SW,225,0.0,0.0,10,0.00,,,0.00,VWS V14.01,2013-03-05 19:28:00,
2013-03-05 14:30:00,78.6,17.5,29.82,SW,225,0.0,0.0,10,0.00,,,0.00,VWS V14.01,2013-03-05 19:30:00,
2013-03-05 14:32:00,78.4,17.4,29.82,SW,225,0.0,0.0,10,0.00,,,0.00,VWS V14.01,2013-03-05 19:32:00,
2013-03-05 14:33:00,78.3,17.3,29.82,SW,225,0.0,0.0,10,0.00,,,0.00,VWS V14.01,2013-03-05 19:33:00,
2013-03-05 14:35:00,78.1,17.1,29.82,SW,225,0.0,0.0,10,0.00,,,0.00,VWS V14.01,2013-03-05 19:35:00,
2013-03-05 14:37:00,77.4,16.6,29.82,SW,225,0.0,0.0,10,0.00,,,0.00,VWS V14.01,2013-03-05 19:37:00,
2013-03-05 14:38:00,77.2,16.5,29.82,SW,225,0.0,0.0,10,0.00,,,0.00,VWS V14.01,2013-03-05 19:38:00,
2013-03-05 14:39:00,77.2,16.5,29.82,SW,225,0.0,0.0,10,0.00,,,0.00,VWS V14.01,2013-03-05 19:39:00,
2013-03-05 14:40:00,77.0,16.3,29.82,SW,225,0.0,0.0,10,0.00,,,0.00,VWS V14.01,2013-03-05 19:40:00,
2013-03-05 14:42:00,76.8,16.2,29.82,SW,225,0.0,0.0,10,0.00,,,0.00,VWS V14.01,2013-03-05 19:42:00,
2013-03-05 14:43:00,76.8,16.2,29.82,SW,225,0.0,0.0,10,0.00,,,0.00,VWS V14.01,2013-03-05 19:43:00,
2013-03-05 14:44:00,76.8,16.2,29.82,SW,225,0.0,0.0,10,0.00,,,0.00,VWS V14.01,2013-03-05 19:44:00,
2013-03-05 14:45:00,77.0,16.3,29.82,SW,225,0.0,0.0,10,0.00,,,0.00,VWS V14.01,2013-03-05 19:45:00,
2013-03-05 14:47:00,77.0,16.3,29.82,SW,225,0.0,0.0,10,0.00,,,0.00,VWS V14.01,2013-03-05 19:47:00,
2013-03-05 14:48:00,77.4,16.6,29.82,SW,225,0.0,0.0,10,0.00,,,0.00,VWS V14.01,2013-03-05 19:48:00,
2013-03-05 14:49:00,77.4,16.6,29.82,SW,225,0.0,0.0,10,0.00,,,0.00,VWS V14.01,2013-03-05 19:49:00,
2013-03-05 14:50:00,77.5,16.7,29.82,SW,225,0.0,0.0,10,0.00,,,0.00,VWS V14.01,2013-03-05 19:50:00,
2013-03-05 14:52:00,78.3,17.3,29.82,SW,225,0.0,0.0,10,0.00,,,0.00,VWS V14.01,2013-03-05 19:52:00,
2013-03-05 14:53:00,78.6,17.5,29.82,SW,225,0.0,0.0,10,0.00,,,0.00,VWS V14.01,2013-03-05 19:53:00,
2013-03-05 14:54:00,78.8,17.7,29.82,SW,225,0.0,0.0,10,0.00,,,0.00,VWS V14.01,2013-03-05 19:54:00,
2013-03-05 14:55:00,79.0,17.8,29.82,SW,225,0.0,0.0,10,0.00,,,0.00,VWS V14.01,2013-03-05 19:55:00,
2013-03-05 14:58:00,79.0,17.8,29.82,SW,225,0.0,0.0,10,0.00,,,0.00,VWS V14.01,2013-03-05 19:58:00,
2013-03-05 14:59:00,79.0,17.8,29.82,SW,225,0.0,0.0,10,0.00,,,0.00,VWS V14.01,2013-03-05 19:59:00,
2013-03-05 15:00:00,79.2,18.0,29.82,SW,225,0.0,0.0,10,0.00,,,0.00,VWS V14.01,2013-03-05 20:00:00,
2013-03-05 15:03:00,79.3,18.1,29.82,SW,225,0.0,0.0,10,0.00,,,0.00,VWS V14.01,2013-03-05 20:03:00,
2013-03-05 15:04:00,79.3,18.1,29.82,SW,225,0.0,0.0,10,0.00,,,0.00,VWS V14.01,2013-03-05 20:04:00,
2013-03-05 15:05:00,79.3,18.1,29.82,SW,225,0.0,0.0,10,0.00,,,0.00,VWS V14.01,2013-03-05 20:05:00,
2013-03-05 15:08:00,79.0,17.8,29.82,SW,225,0.0,0.0,10,0.00,,,0.00,VWS V14.01,2013-03-05 20:08:00,
2013-03-05 15:09:00,79.0,17.8,29.82,SW,225,0.0,0.0,10,0.00,,,0.00,VWS V14.01,2013-03-05 20:09:00,
2013-03-05 15:10:00,79.0,17.8,29.82,SW,225,0.0,0.0,10,0.00,,,0.00,VWS V14.01,2013-03-05 20:10:00,
2013-03-05 15:13:00,79.0,17.8,29.82,SW,225,0.0,0.0,10,0.00,,,0.00,VWS V14.01,2013-03-05 20:13:00,
2013-03-05 15:14:00,79.0,17.8,29.82,SW,225,0.0,0.0,10,0.00,,,0.00,VWS V14.01,2013-03-05 20:14:00,
2013-03-05 15:15:00,78.6,17.5,29.82,SW,225,0.0,0.0,10,0.00,,,0.00,VWS V14.01,2013-03-05 20:15:00,
2013-03-05 15:18:00,78.3,17.3,29.82,SW,225,0.0,0.0,10,0.00,,,0.00,VWS V14.01,2013-03-05 20:18:00,
2013-03-05 15:19:00,78.3,17.3,29.82,SW,225,0.0,0.0,10,0.00,,,0.00,VWS V14.01,2013-03-05 20:19:00,
2013-03-05 15:20:00,78.1,17.1,29.82,SW,225,0.0,0.0,10,0.00,,,0.00,VWS V14.01,2013-03-05 20:20:00,
2013-03-05 15:23:00,77.7,16.9,29.82,SW,225,0.0,0.0,10,0.00,,,0.00,VWS V14.01,2013-03-05 20:23:00,
2013-03-05 15:24:00,77.7,16.9,29.82,SW,225,0.0,0.0,10,0.00,,,0.00,VWS V14.01,2013-03-05 20:24:00,
2013-03-05 15:26:00,77.5,16.7,29.82,SW,225,0.0,0.0,10,0.00,,,0.00,VWS V14.01,2013-03-05 20:26:00,
2013-03-05 15:28:00,77.9,17.0,29.82,SW,225,0.0,0.0,10,0.00,,,0.00,VWS V14.01,2013-03-05 20:28:00,
2013-03-05 15:29:00,77.9,17.0,29.82,SW,225,0.0,0.0,10,0.00,,,0.00,VWS V14.01,2013-03-05 20:29:00,
2013-03-05 15:31:00,78.4,17.4,29.82,SW,225,0.0,0.0,10,0.00,,,0.00,VWS V14.01,2013-03-05 20:31:00,
2013-03-05 15:33:00,78.4,17.4,29.82,SW,225,0.0,0.0,10,0.00,,,0.00,VWS V14.01,2013-03-05 20:33:00,
2013-03-05 15:34:00,78.4,17.4,29.82,SW,225,0.0,0.0,10,0.00,,,0.00,VWS V14.01,2013-03-05 20:34:00,
2013-03-05 15:36:00,78.6,17.5,29.82,SW,225,0.0,0.0,10,0.00,,,0.00,VWS V14.01,2013-03-05 20:36:00,
2013-03-05 15:38:00,78.8,17.7,29.82,SW,225,0.0,0.0,10,0.00,,,0.00,VWS V14.01,2013-03-05 20:38:00,
2013-03-05 15:39:00,79.0,17.8,29.82,SW,225,0.0,0.0,10,0.00,,,0.00,VWS V14.01,2013-03-05 20:39:00,
2013-03-05 15:41:00,79.0,17.8,29.82,SW,225,0.0,0.0,10,0.00,,,0.00,VWS V14.01,2013-03-05 20:41:00,
2013-03-05 15:44:00,78.8,17.7,29.82,SW,225,0.0,0.0,10,0.00,,,0.00,VWS V14.01,2013-03-05 20:44:00,
2013-03-05 15:45:00,78.8,17.7,29.82,SW,225,0.0,0.0,10,0.00,,,0.00,VWS V14.01,2013-03-05 20:45:00,
2013-03-05 15:47:00,78.8,17.7,29.82,SW,225,0.0,0.0,10,0.00,,,0.00,VWS V14.01,2013-03-05 20:47:00,
2013-03-05 15:49:00,79.0,17.8,29.82,SW,225,0.0,0.0,10,0.00,,,0.00,VWS V14.01,2013-03-05 20:49:00,
2013-03-05 15:50:00,79.0,17.8,29.82,SW,225,0.0,0.0,10,0.00,,,0.00,VWS V14.01,2013-03-05 20:50:00,
2013-03-05 15:52:00,79.2,18.0,29.82,SW,225,0.0,0.0,10,0.00,,,0.00,VWS V14.01,2013-03-05 20:52:00,
2013-03-05 15:54:00,79.3,18.1,29.82,SW,225,0.0,0.0,10,0.00,,,0.00,VWS V14.01,2013-03-05 20:54:00,
2013-03-05 15:55:00,79.3,18.1,29.82,SW,225,0.0,0.0,10,0.00,,,0.00,VWS V14.01,2013-03-05 20:55:00,
2013-03-05 15:57:00,79.3,18.1,29.82,SW,225,0.0,0.0,10,0.00,,,0.00,VWS V14.01,2013-03-05 20:57:00,
2013-03-05 15:59:00,79.3,18.1,29.82,SW,225,0.0,0.0,10,0.00,,,0.00,VWS V14.01,2013-03-05 20:59:00,
2013-03-05 16:00:00,79.3,18.1,29.82,SW,225,0.0,0.0,10,0.00,,,0.00,VWS V14.01,2013-03-05 21:00:00,
2013-03-05 16:02:00,79.3,18.1,29.82,SW,225,0.0,0.0,10,0.00,,,0.00,VWS V14.01,2013-03-05 21:02:00,
2013-03-05 16:04:00,79.2,18.0,29.82,SW,225,0.0,0.0,10,0.00,,,0.00,VWS V14.01,2013-03-05 21:04:00,
2013-03-05 16:05:00,79.2,18.0,29.82,SW,225,0.0,0.0,10,0.00,,,0.00,VWS V14.01,2013-03-05 21:05:00,
2013-03-05 16:07:00,79.2,18.0,29.82,SW,225,0.0,0.0,10,0.00,,,0.00,VWS V14.01,2013-03-05 21:07:00,
2013-03-05 16:09:00,79.3,18.1,29.82,SW,225,0.0,0.0,10,0.00,,,0.00,VWS V14.01,2013-03-05 21:09:00,
2013-03-05 16:10:00,79.2,18.0,29.82,SW,225,0.0,0.0,10,0.00,,,0.00,VWS V14.01,2013-03-05 21:10:00,
2013-03-05 16:12:00,78.8,17.7,29.82,SW,225,0.0,0.0,10,0.00,,,0.00,VWS V14.01,2013-03-05 21:12:00,
2013-03-05 16:14:00,78.3,17.3,29.82,SW,225,0.0,0.0,10,0.00,,,0.00,VWS V14.01,2013-03-05 21:14:00,
2013-03-05 16:15:00,77.9,17.0,29.82,SW,225,0.0,0.0,10,0.00,,,0.00,VWS V14.01,2013-03-05 21:15:00,
2013-03-05 16:17:00,77.2,16.5,29.82,SW,225,0.0,0.0,10,0.00,,,0.00,VWS V14.01,2013-03-05 21:17:00,
2013-03-05 16:19:00,76.6,16.0,29.82,SW,225,0.0,0.0,10,0.00,,,0.00,VWS V14.01,2013-03-05 21:19:00,
2013-03-05 16:21:00,76.3,15.8,29.82,SW,225,0.0,0.0,10,0.00,,,0.00,VWS V14.01,2013-03-05 21:21:00,
2013-03-05 16:22:00,75.6,15.2,29.82,SW,225,0.0,2.5,10,0.00,,,0.00,VWS V14.01,2013-03-05 21:22:00,
2013-03-05 16:24:00,75.0,17.0,29.79,SW,225,0.0,0.0,11,0.00,,,0.00,VWS V14.01,2013-03-05 21:24:00,
2013-03-05 16:26:00,74.5,16.6,29.79,SW,225,0.0,0.0,11,0.00,,,0.00,VWS V14.01,2013-03-05 21:26:00,
2013-03-05 16:27:00,74.3,16.4,29.79,SW,225,0.0,0.0,11,0.00,,,0.00,VWS V14.01,2013-03-05 21:27:00,
2013-03-05 16:29:00,74.1,16.3,29.79,SW,225,0.0,0.0,11,0.00,,,0.00,VWS V14.01,2013-03-05 21:29:00,
2013-03-05 16:30:00,73.9,16.1,29.79,SW,225,0.0,0.0,11,0.00,,,0.00,VWS V14.01,2013-03-05 21:30:00,
2013-03-05 16:31:00,73.9,16.1,29.79,SW,225,0.0,0.0,11,0.00,,,0.00,VWS V14.01,2013-03-05 21:31:00,
2013-03-05 16:32:00,73.6,15.9,29.79,SW,225,0.0,0.0,11,0.00,,,0.00,VWS V14.01,2013-03-05 21:32:00,
2013-03-05 16:34:00,73.4,15.7,29.79,SW,225,0.0,0.0,11,0.00,,,0.00,VWS V14.01,2013-03-05 21:34:00,
2013-03-05 16:35:00,73.2,15.6,29.79,SW,225,0.0,0.0,11,0.00,,,0.00,VWS V14.01,2013-03-05 21:35:00,
2013-03-05 16:36:00,73.0,15.5,29.79,SW,225,0.0,0.0,11,0.00,,,0.00,VWS V14.01,2013-03-05 21:36:00,
2013-03-05 16:37:00,73.0,15.5,29.79,SW,225,0.0,0.0,11,0.00,,,0.00,VWS V14.01,2013-03-05 21:37:00,
2013-03-05 16:39:00,72.9,15.3,29.82,SW,225,0.0,0.0,11,0.00,,,0.00,VWS V14.01,2013-03-05 21:39:00,
2013-03-05 16:40:00,72.7,15.2,29.82,SW,225,0.0,0.0,11,0.00,,,0.00,VWS V14.01,2013-03-05 21:40:00,
2013-03-05 16:41:00,72.7,15.2,29.82,SW,225,0.0,0.0,11,0.00,,,0.00,VWS V14.01,2013-03-05 21:41:00,
2013-03-05 16:42:00,72.3,14.9,29.82,SW,225,0.0,0.0,11,0.00,,,0.00,VWS V14.01,2013-03-05 21:42:00,
2013-03-05 16:44:00,72.0,14.6,29.82,SW,225,0.0,0.0,11,0.00,,,0.00,VWS V14.01,2013-03-05 21:44:00,
2013-03-05 16:45:00,71.8,14.5,29.82,SW,225,0.0,0.0,11,0.00,,,0.00,VWS V14.01,2013-03-05 21:45:00,
2013-03-05 16:46:00,71.6,14.4,29.82,SW,225,0.0,0.0,11,0.00,,,0.00,VWS V14.01,2013-03-05 21:46:00,
2013-03-05 16:47:00,71.2,16.1,29.82,SW,225,0.0,0.0,12,0.00,,,0.00,VWS V14.01,2013-03-05 21:47:00,
2013-03-05 16:49:00,70.7,15.6,29.82,SW,225,0.0,0.0,12,0.00,,,0.00,VWS V14.01,2013-03-05 21:49:00,
2013-03-05 16:50:00,70.7,15.6,29.82,SW,225,0.0,0.0,12,0.00,,,0.00,VWS V14.01,2013-03-05 21:50:00,
2013-03-05 16:51:00,70.5,15.5,29.82,SW,225,0.0,0.0,12,0.00,,,0.00,VWS V14.01,2013-03-05 21:51:00,
2013-03-05 16:52:00,70.3,15.4,29.82,SW,225,0.0,0.0,12,0.00,,,0.00,VWS V14.01,2013-03-05 21:52:00,
2013-03-05 16:54:00,70.0,15.1,29.82,SW,225,0.0,0.0,12,0.00,,,0.00,VWS V14.01,2013-03-05 21:54:00,
2013-03-05 16:55:00,69.8,14.9,29.82,SW,225,0.0,0.0,12,0.00,,,0.00,VWS V14.01,2013-03-05 21:55:00,
2013-03-05 16:56:00,69.6,14.8,29.82,SW,225,0.0,0.0,12,0.00,,,0.00,VWS V14.01,2013-03-05 21:56:00,
2013-03-05 16:57:00,69.6,14.8,29.82,SW,225,0.0,0.0,12,0.00,,,0.00,VWS V14.01,2013-03-05 21:57:00,
2013-03-05 17:00:00,68.5,13.9,29.82,SW,225,0.0,0.0,12,0.00,,,0.00,VWS V14.01,2013-03-05 22:00:00,
2013-03-05 17:01:00,68.0,13.5,29.82,SW,225,0.0,0.0,12,0.00,,,0.00,VWS V14.01,2013-03-05 22:01:00,
2013-03-05 17:02:00,67.6,13.2,29.82,SW,225,0.0,0.0,12,0.00,,,0.00,VWS V14.01,2013-03-05 22:02:00,
2013-03-05 17:05:00,66.6,12.4,29.82,SW,225,0.0,0.0,12,0.00,,,0.00,VWS V14.01,2013-03-05 22:05:00,
2013-03-05 17:06:00,66.2,12.1,29.82,SW,225,0.0,0.0,12,0.00,,,0.00,VWS V14.01,2013-03-05 22:06:00,
2013-03-05 17:07:00,65.5,13.4,29.82,SW,225,0.0,0.0,13,0.00,,,0.00,VWS V14.01,2013-03-05 22:07:00,
2013-03-05 17:10:00,64.2,12.4,29.82,SW,225,0.0,0.0,13,0.00,,,0.00,VWS V14.01,2013-03-05 22:10:00,
2013-03-05 17:11:00,63.9,12.1,29.82,SW,225,0.0,0.0,13,0.00,,,0.00,VWS V14.01,2013-03-05 22:11:00,
2013-03-05 17:12:00,63.1,11.5,29.82,SW,225,0.0,0.0,13,0.00,,,0.00,VWS V14.01,2013-03-05 22:12:00,
2013-03-05 17:15:00,62.1,12.3,29.82,SW,225,0.0,0.0,14,0.00,,,0.00,VWS V14.01,2013-03-05 22:15:00,
2013-03-05 17:16:00,61.7,12.1,29.82,SW,225,0.0,0.0,14,0.00,,,0.00,VWS V14.01,2013-03-05 22:16:00,
2013-03-05 17:17:00,61.5,11.9,29.82,SW,225,0.0,0.0,14,0.00,,,0.00,VWS V14.01,2013-03-05 22:17:00,
2013-03-05 17:20:00,60.6,11.2,29.82,SW,225,0.0,0.0,14,0.00,,,0.00,VWS V14.01,2013-03-05 22:20:00,
2013-03-05 17:21:00,60.3,10.9,29.82,SW,225,0.0,0.0,14,0.00,,,0.00,VWS V14.01,2013-03-05 22:21:00,
2013-03-05 17:22:00,59.7,10.5,29.82,SW,225,0.0,0.0,14,0.00,,,0.00,VWS V14.01,2013-03-05 22:22:00,
2013-03-05 17:25:00,58.6,9.6,29.82,SW,225,0.0,0.0,14,0.00,,,0.00,VWS V14.01,2013-03-05 22:25:00,
2013-03-05 17:26:00,58.3,9.3,29.82,SW,225,0.0,0.0,14,0.00,,,0.00,VWS V14.01,2013-03-05 22:26:00,
2013-03-05 17:28:00,57.7,8.9,29.82,SW,225,0.0,0.0,14,0.00,,,0.00,VWS V14.01,2013-03-05 22:28:00,
2013-03-05 17:30:00,56.8,9.7,29.82,SW,225,0.0,0.0,15,0.00,,,0.00,VWS V14.01,2013-03-05 22:30:00,
2013-03-05 17:31:00,56.8,9.7,29.82,SW,225,0.0,0.0,15,0.00,,,0.00,VWS V14.01,2013-03-05 22:31:00,
2013-03-05 17:32:00,56.3,9.3,29.82,SW,225,0.0,0.0,15,0.00,,,0.00,VWS V14.01,2013-03-05 22:32:00,
2013-03-05 17:33:00,56.1,4.2,29.82,SW,225,0.0,0.0,12,0.00,,,0.00,VWS V14.01,2013-03-05 22:33:00,
2013-03-05 17:35:00,55.2,5.2,29.82,SW,225,0.0,0.0,13,0.00,,,0.00,VWS V14.01,2013-03-05 22:35:00,
2013-03-05 17:36:00,55.2,5.2,29.82,SW,225,0.0,0.0,13,0.00,,,0.00,VWS V14.01,2013-03-05 22:36:00,
2013-03-05 17:37:00,54.5,4.7,29.82,SW,225,0.0,0.0,13,0.00,,,0.00,VWS V14.01,2013-03-05 22:37:00,
2013-03-05 17:38:00,54.3,4.5,29.82,SW,225,0.0,0.0,13,0.00,,,0.00,VWS V14.01,2013-03-05 22:38:00,
2013-03-05 17:40:00,53.8,4.1,29.85,SW,225,0.0,0.0,13,0.00,,,0.00,VWS V14.01,2013-03-05 22:40:00,
2013-03-05 17:41:00,53.4,3.8,29.85,SW,225,0.0,0.0,13,0.00,,,0.00,VWS V14.01,2013-03-05 22:41:00,
2013-03-05 17:42:00,52.9,3.4,29.85,SW,225,0.0,0.0,13,0.00,,,0.00,VWS V14.01,2013-03-05 22:42:00,
2013-03-05 17:43:00,52.9,3.4,29.85,SW,225,0.0,0.0,13,0.00,,,0.00,VWS V14.01,2013-03-05 22:43:00,
2013-03-05 17:45:00,52.0,2.7,29.85,SW,225,0.0,0.0,13,0.00,,,0.00,VWS V14.01,2013-03-05 22:45:00,
2013-03-05 17:46:00,52.0,2.7,29.85,SW,225,0.0,0.0,13,0.00,,,0.00,VWS V14.01,2013-03-05 22:46:00,
2013-03-05 17:47:00,51.6,4.0,29.85,SW,225,0.0,0.0,14,0.00,,,0.00,VWS V14.01,2013-03-05 22:47:00,
2013-03-05 17:48:00,51.3,3.7,29.85,SW,225,0.0,0.0,14,0.00,,,0.00,VWS V14.01,2013-03-05 22:48:00,
2013-03-05 17:51:00,50.5,3.1,29.85,SW,225,0.0,0.0,14,0.00,,,0.00,VWS V14.01,2013-03-05 22:51:00,
2013-03-05 17:53:00,50.2,2.8,29.85,SW,225,0.0,0.0,14,0.00,,,0.00,VWS V14.01,2013-03-05 22:53:00,
2013-03-05 17:56:00,49.3,2.1,29.82,SW,225,0.0,0.0,14,0.00,,,0.00,VWS V14.01,2013-03-05 22:56:00,
2013-03-05 17:58:00,48.9,1.8,29.82,SW,225,0.0,0.0,14,0.00,,,0.00,VWS V14.01,2013-03-05 22:58:00,
2013-03-05 18:01:00,48.6,1.5,29.82,SW,225,0.0,0.0,14,0.00,,,0.00,VWS V14.01,2013-03-05 23:01:00,
2013-03-05 18:03:00,48.0,1.1,29.82,SW,225,0.0,0.0,14,0.00,,,0.00,VWS V14.01,2013-03-05 23:03:00,
2013-03-05 18:04:00,47.8,1.0,29.82,SW,225,0.0,0.0,14,0.00,,,0.00,VWS V14.01,2013-03-05 23:04:00,
2013-03-05 18:06:00,47.7,0.8,29.82,SW,225,0.0,0.0,14,0.00,,,0.00,VWS V14.01,2013-03-05 23:06:00,
2013-03-05 18:08:00,47.3,0.5,29.82,SW,225,0.0,0.0,14,0.00,,,0.00,VWS V14.01,2013-03-05 23:08:00,
2013-03-05 18:09:00,46.9,0.2,29.82,SW,225,0.0,0.0,14,0.00,,,0.00,VWS V14.01,2013-03-05 23:09:00,
2013-03-05 18:11:00,46.8,0.1,29.82,SW,225,0.0,0.0,14,0.00,,,0.00,VWS V14.01,2013-03-05 23:11:00,
2013-03-05 18:13:00,46.4,-0.2,29.82,SW,225,0.0,0.0,14,0.00,,,0.00,VWS V14.01,2013-03-05 23:13:00,
2013-03-05 18:14:00,46.4,-0.2,29.82,SW,225,0.0,0.0,14,0.00,,,0.00,VWS V14.01,2013-03-05 23:14:00,
2013-03-05 18:16:00,46.0,1.0,29.82,SW,225,0.0,0.0,15,0.00,,,0.00,VWS V14.01,2013-03-05 23:16:00,
2013-03-05 18:18:00,45.7,0.7,29.82,SW,225,0.0,0.0,15,0.00,,,0.00,VWS V14.01,2013-03-05 23:18:00,
2013-03-05 18:19:00,45.5,0.6,29.82,SW,225,0.0,0.0,15,0.00,,,0.00,VWS V14.01,2013-03-05 23:19:00,
2013-03-05 18:21:00,45.1,0.3,29.82,SW,225,0.0,0.0,15,0.00,,,0.00,VWS V14.01,2013-03-05 23:21:00,
2013-03-05 18:23:00,45.1,0.3,29.82,SW,225,0.0,0.0,15,0.00,,,0.00,VWS V14.01,2013-03-05 23:23:00,
2013-03-05 18:24:00,44.8,0.0,29.85,SW,225,0.0,0.0,15,0.00,,,0.00,VWS V14.01,2013-03-05 23:24:00,
2013-03-05 18:26:00,44.6,-0.2,29.85,SW,225,0.0,0.0,15,0.00,,,0.00,VWS V14.01,2013-03-05 23:26:00,
2013-03-05 18:28:00,44.4,-0.3,29.85,SW,225,0.0,0.0,15,0.00,,,0.00,VWS V14.01,2013-03-05 23:28:00,
2013-03-05 18:29:00,44.2,-0.5,29.85,SW,225,0.0,0.0,15,0.00,,,0.00,VWS V14.01,2013-03-05 23:29:00,
2013-03-05 18:31:00,44.1,-0.6,29.85,SW,225,0.0,0.0,15,0.00,,,0.00,VWS V14.01,2013-03-05 23:31:00,
2013-03-05 18:33:00,44.1,-0.6,29.85,SW,225,0.0,0.0,15,0.00,,,0.00,VWS V14.01,2013-03-05 23:33:00,
2013-03-05 18:34:00,43.9,-0.8,29.85,SW,225,0.0,0.0,15,0.00,,,0.00,VWS V14.01,2013-03-05 23:34:00,
2013-03-05 18:37:00,43.7,-0.9,29.85,SW,225,0.0,0.0,15,0.00,,,0.00,VWS V14.01,2013-03-05 23:37:00,
2013-03-05 18:38:00,43.5,-1.1,29.85,SW,225,0.0,0.0,15,0.00,,,0.00,VWS V14.01,2013-03-05 23:38:00,
2013-03-05 18:39:00,43.3,-1.2,29.85,SW,225,0.0,0.0,15,0.00,,,0.00,VWS V14.01,2013-03-05 23:39:00,
2013-03-05 18:42:00,43.2,-1.4,29.85,SW,225,0.0,0.0,15,0.00,,,0.00,VWS V14.01,2013-03-05 23:42:00,
2013-03-05 18:43:00,43.0,-1.5,29.85,SW,225,0.0,0.0,15,0.00,,,0.00,VWS V14.01,2013-03-05 23:43:00,
2013-03-05 18:44:00,43.0,-1.5,29.85,SW,225,0.0,0.0,15,0.00,,,0.00,VWS V14.01,2013-03-05 23:44:00,
2013-03-05 18:47:00,42.6,-0.4,29.85,SW,225,0.0,0.0,16,0.00,,,0.00,VWS V14.01,2013-03-05 23:47:00,
2013-03-05 18:48:00,42.6,-0.4,29.85,SW,225,0.0,0.0,16,0.00,,,0.00,VWS V14.01,2013-03-05 23:48:00,
2013-03-05 18:50:00,42.4,-0.6,29.85,SW,225,0.0,0.0,16,0.00,,,0.00,VWS V14.01,2013-03-05 23:50:00,
2013-03-05 18:52:00,42.3,-0.7,29.85,SW,225,0.0,0.0,16,0.00,,,0.00,VWS V14.01,2013-03-05 23:52:00,
2013-03-05 18:53:00,42.1,-0.9,29.85,SW,225,0.0,0.0,16,0.00,,,0.00,VWS V14.01,2013-03-05 23:53:00,
2013-03-05 18:55:00,42.1,-0.9,29.85,SW,225,0.0,0.0,16,0.00,,,0.00,VWS V14.01,2013-03-05 23:55:00,
2013-03-05 18:57:00,41.9,-1.0,29.85,SW,225,0.0,0.0,16,0.00,,,0.00,VWS V14.01,2013-03-05 23:57:00,
2013-03-05 18:58:00,41.7,-1.2,29.85,SW,225,0.0,0.0,16,0.00,,,0.00,VWS V14.01,2013-03-05 23:58:00,
2013-03-05 19:00:00,41.7,-1.2,29.85,SW,225,0.0,0.0,16,0.00,,,0.00,VWS V14.01,2013-03-06 00:00:00,
2013-03-05 19:02:00,41.5,-1.3,29.85,SW,225,0.0,0.0,16,0.00,,,0.00,VWS V14.01,2013-03-06 00:02:00,
2013-03-05 19:03:00,41.5,-1.3,29.85,SW,225,0.0,0.0,16,0.00,,,0.00,VWS V14.01,2013-03-06 00:03:00,
2013-03-05 19:05:00,41.4,-1.5,29.85,SW,225,0.0,0.0,16,0.00,,,0.00,VWS V14.01,2013-03-06 00:05:00,
2013-03-05 19:07:00,41.2,-1.6,29.85,SW,225,0.0,0.0,16,0.00,,,0.00,VWS V14.01,2013-03-06 00:07:00,
2013-03-05 19:08:00,41.2,-1.6,29.85,SW,225,0.0,0.0,16,0.00,,,0.00,VWS V14.01,2013-03-06 00:08:00,
2013-03-05 19:10:00,41.2,-1.6,29.85,SW,225,0.0,0.0,16,0.00,,,0.00,VWS V14.01,2013-03-06 00:10:00,
2013-03-05 19:13:00,41.0,-1.7,29.85,SW,225,0.0,0.0,16,0.00,,,0.00,VWS V14.01,2013-03-06 00:13:00,
2013-03-05 19:14:00,41.0,-1.7,29.85,SW,225,0.0,0.0,16,0.00,,,0.00,VWS V14.01,2013-03-06 00:14:00,
2013-03-05 19:15:00,41.0,-1.7,29.85,SW,225,0.0,0.0,16,0.00,,,0.00,VWS V14.01,2013-03-06 00:15:00,
2013-03-05 19:18:00,40.8,-1.9,29.85,SW,225,0.0,0.0,16,0.00,,,0.00,VWS V14.01,2013-03-06 00:18:00,
2013-03-05 19:19:00,40.6,-2.0,29.85,SW,225,0.0,0.0,16,0.00,,,0.00,VWS V14.01,2013-03-06 00:19:00,
2013-03-05 19:20:00,40.6,-2.0,29.85,SW,225,0.0,0.0,16,0.00,,,0.00,VWS V14.01,2013-03-06 00:20:00,
2013-03-05 19:23:00,40.6,-2.0,29.85,SW,225,0.0,0.0,16,0.00,,,0.00,VWS V14.01,2013-03-06 00:23:00,
2013-03-05 19:24:00,40.5,-2.2,29.85,SW,225,0.0,0.0,16,0.00,,,0.00,VWS V14.01,2013-03-06 00:24:00,
2013-03-05 19:25:00,40.5,-2.2,29.85,SW,225,0.0,0.0,16,0.00,,,0.00,VWS V14.01,2013-03-06 00:25:00,
2013-03-05 19:28:00,40.3,-2.3,29.85,SW,225,0.0,0.0,16,0.00,,,0.00,VWS V14.01,2013-03-06 00:28:00,
2013-03-05 19:29:00,40.3,-2.3,29.85,SW,225,0.0,0.0,16,0.00,,,0.00,VWS V14.01,2013-03-06 00:29:00,
2013-03-05 19:30:00,40.3,-2.3,29.85,SW,225,0.0,0.0,16,0.00,,,0.00,VWS V14.01,2013-03-06 00:30:00,
2013-03-05 19:33:00,40.1,-2.5,29.85,SW,225,0.0,0.0,16,0.00,,,0.00,VWS V14.01,2013-03-06 00:33:00,
2013-03-05 19:34:00,40.1,-2.5,29.85,SW,225,0.0,0.0,16,0.00,,,0.00,VWS V14.01,2013-03-06 00:34:00,
2013-03-05 19:35:00,40.1,-2.5,29.85,SW,225,0.0,0.0,16,0.00,,,0.00,VWS V14.01,2013-03-06 00:35:00,
2013-03-05 19:38:00,39.9,-2.6,29.85,SW,225,0.0,0.0,16,0.00,,,0.00,VWS V14.01,2013-03-06 00:38:00,
2013-03-05 19:39:00,39.9,-2.6,29.82,SW,225,0.0,0.0,16,0.00,,,0.00,VWS V14.01,2013-03-06 00:39:00,
2013-03-05 19:40:00,39.9,-2.6,29.82,SW,225,0.0,0.0,16,0.00,,,0.00,VWS V14.01,2013-03-06 00:40:00,
2013-03-05 19:43:00,39.7,-2.8,29.82,SW,225,0.0,0.0,16,0.00,,,0.00,VWS V14.01,2013-03-06 00:43:00,
2013-03-05 19:44:00,39.7,-2.8,29.82,SW,225,0.0,0.0,16,0.00,,,0.00,VWS V14.01,2013-03-06 00:44:00,
2013-03-05 19:45:00,39.7,-2.8,29.82,SW,225,0.0,0.0,16,0.00,,,0.00,VWS V14.01,2013-03-06 00:45:00,
2013-03-05 19:48:00,39.7,-2.8,29.82,SW,225,0.0,0.0,16,0.00,,,0.00,VWS V14.01,2013-03-06 00:48:00,
2013-03-05 19:49:00,39.6,-2.9,29.82,SW,225,0.0,0.0,16,0.00,,,0.00,VWS V14.01,2013-03-06 00:49:00,
2013-03-05 19:50:00,39.6,-2.9,29.82,SW,225,0.0,0.0,16,0.00,,,0.00,VWS V14.01,2013-03-06 00:50:00,
2013-03-05 19:53:00,39.4,-3.1,29.82,SW,225,0.0,0.0,16,0.00,,,0.00,VWS V14.01,2013-03-06 00:53:00,
2013-03-05 19:54:00,39.4,-3.1,29.82,SW,225,0.0,0.0,16,0.00,,,0.00,VWS V14.01,2013-03-06 00:54:00,
2013-03-05 19:55:00,39.4,-3.1,29.82,SW,225,0.0,0.0,16,0.00,,,0.00,VWS V14.01,2013-03-06 00:55:00,
2013-03-05 19:58:00,39.4,-3.1,29.82,SW,225,0.0,0.0,16,0.00,,,0.00,VWS V14.01,2013-03-06 00:58:00,
2013-03-05 19:59:00,39.2,-3.2,29.82,SW,225,0.0,0.0,16,0.00,,,0.00,VWS V14.01,2013-03-06 00:59:00,
2013-03-05 20:00:00,39.2,-3.2,29.82,SW,225,0.0,0.0,16,0.00,,,0.00,VWS V14.01,2013-03-06 01:00:00,
2013-03-05 20:03:00,39.2,-3.2,29.82,SW,225,0.0,0.0,16,0.00,,,0.00,VWS V14.01,2013-03-06 01:03:00,
2013-03-05 20:04:00,39.0,-3.4,29.82,SW,225,0.0,0.0,16,0.00,,,0.00,VWS V14.01,2013-03-06 01:04:00,
2013-03-05 20:05:00,39.0,-3.4,29.82,SW,225,0.0,0.0,16,0.00,,,0.00,VWS V14.01,2013-03-06 01:05:00,
2013-03-05 20:08:00,38.8,-3.5,29.82,SW,225,0.0,0.0,16,0.00,,,0.00,VWS V14.01,2013-03-06 01:08:00,
2013-03-05 20:09:00,38.8,-3.5,29.82,SW,225,0.0,0.0,16,0.00,,,0.00,VWS V14.01,2013-03-06 01:09:00,
2013-03-05 20:10:00,38.8,-3.5,29.82,SW,225,0.0,0.0,16,0.00,,,0.00,VWS V14.01,2013-03-06 01:10:00,
2013-03-05 20:13:00,38.7,-3.7,29.82,SW,225,0.0,0.0,16,0.00,,,0.00,VWS V14.01,2013-03-06 01:13:00,
2013-03-05 20:14:00,38.7,-3.7,29.82,SW,225,0.0,0.0,16,0.00,,,0.00,VWS V14.01,2013-03-06 01:14:00,
2013-03-05 20:15:00,38.7,0.0,29.82,SW,225,0.0,0.0,19,0.00,,,0.00,VWS V14.01,2013-03-06 01:15:00,
2013-03-05 20:18:00,38.5,-0.2,29.82,SW,225,0.0,0.0,19,0.00,,,0.00,VWS V14.01,2013-03-06 01:18:00,
2013-03-05 20:19:00,38.5,-0.2,29.82,SW,225,0.0,0.0,19,0.00,,,0.00,VWS V14.01,2013-03-06 01:19:00,
2013-03-05 20:20:00,38.5,-0.2,29.82,SW,225,0.0,0.0,19,0.00,,,0.00,VWS V14.01,2013-03-06 01:20:00,
2013-03-05 20:24:00,38.1,-0.5,29.82,SW,225,0.0,0.0,19,0.00,,,0.00,VWS V14.01,2013-03-06 01:24:00,
2013-03-05 20:25:00,38.1,-0.5,29.82,SW,225,0.0,0.0,19,0.00,,,0.00,VWS V14.01,2013-03-06 01:25:00,
2013-03-05 20:29:00,38.1,-0.5,29.82,SW,225,0.0,0.0,19,0.00,,,0.00,VWS V14.01,2013-03-06 01:29:00,
2013-03-05 20:30:00,37.9,-0.6,29.82,SW,225,0.0,0.0,19,0.00,,,0.00,VWS V14.01,2013-03-06 01:30:00,
2013-03-05 20:31:00,37.9,-0.6,29.82,SW,225,0.0,0.0,19,0.00,,,0.00,VWS V14.01,2013-03-06 01:31:00,
2013-03-05 20:34:00,37.9,-0.6,29.82,SW,225,0.0,0.0,19,0.00,,,0.00,VWS V14.01,2013-03-06 01:34:00,
2013-03-05 20:35:00,37.8,-0.8,29.82,SW,225,0.0,0.0,19,0.00,,,0.00,VWS V14.01,2013-03-06 01:35:00,
2013-03-05 20:36:00,37.8,-0.8,29.82,SW,225,0.0,0.0,19,0.00,,,0.00,VWS V14.01,2013-03-06 01:36:00,
2013-03-05 20:39:00,37.6,-0.9,29.82,SW,225,0.0,0.0,19,0.00,,,0.00,VWS V14.01,2013-03-06 01:39:00,
2013-03-05 20:40:00,37.6,-0.9,29.82,SW,225,0.0,0.0,19,0.00,,,0.00,VWS V14.01,2013-03-06 01:40:00,
2013-03-05 20:41:00,37.4,-1.1,29.82,SW,225,0.0,0.0,19,0.00,,,0.00,VWS V14.01,2013-03-06 01:41:00,
2013-03-05 20:44:00,37.4,-1.1,29.82,SW,225,0.0,0.0,19,0.00,,,0.00,VWS V14.01,2013-03-06 01:44:00,
2013-03-05 20:45:00,37.4,-1.1,29.82,SW,225,0.0,0.0,19,0.00,,,0.00,VWS V14.01,2013-03-06 01:45:00,
2013-03-05 20:46:00,37.2,-1.2,29.82,SW,225,0.0,0.0,19,0.00,,,0.00,VWS V14.01,2013-03-06 01:46:00,
2013-03-05 20:49:00,37.2,-1.2,29.82,SW,225,0.0,0.0,19,0.00,,,0.00,VWS V14.01,2013-03-06 01:49:00,
2013-03-05 20:50:00,37.0,-1.4,29.82,SW,225,0.0,0.0,19,0.00,,,0.00,VWS V14.01,2013-03-06 01:50:00,
2013-03-05 20:51:00,37.0,-1.4,29.82,SW,225,0.0,0.0,19,0.00,,,0.00,VWS V14.01,2013-03-06 01:51:00,
2013-03-05 20:54:00,37.0,-1.4,29.82,SW,225,0.0,0.0,19,0.00,,,0.00,VWS V14.01,2013-03-06 01:54:00,
2013-03-05 20:55:00,37.0,-1.4,29.82,SW,225,0.0,0.0,19,0.00,,,0.00,VWS V14.01,2013-03-06 01:55:00,
2013-03-05 20:56:00,37.0,-1.4,29.82,SW,225,0.0,0.0,19,0.00,,,0.00,VWS V14.01,2013-03-06 01:56:00,
2013-03-05 20:59:00,36.9,-1.5,29.82,SW,225,0.0,0.0,19,0.00,,,0.00,VWS V14.01,2013-03-06 01:59:00,
2013-03-05 21:00:00,36.9,-1.5,29.82,SW,225,0.0,0.0,19,0.00,,,0.00,VWS V14.01,2013-03-06 02:00:00,
2013-03-05 21:01:00,36.9,-1.5,29.82,SW,225,0.0,0.0,19,0.00,,,0.00,VWS V14.01,2013-03-06 02:01:00,
2013-03-05 21:04:00,36.9,-1.5,29.82,SW,225,0.0,0.0,19,0.00,,,0.00,VWS V14.01,2013-03-06 02:04:00,
2013-03-05 21:05:00,36.7,-1.7,29.82,SW,225,0.0,0.0,19,0.00,,,0.00,VWS V14.01,2013-03-06 02:05:00,
2013-03-05 21:06:00,36.7,-1.7,29.82,SW,225,0.0,0.0,19,0.00,,,0.00,VWS V14.01,2013-03-06 02:06:00,
2013-03-05 21:09:00,36.7,-1.7,29.82,SW,225,0.0,0.0,19,0.00,,,0.00,VWS V14.01,2013-03-06 02:09:00,
2013-03-05 21:10:00,36.7,-1.7,29.82,SW,225,0.0,0.0,19,0.00,,,0.00,VWS V14.01,2013-03-06 02:10:00,
2013-03-05 21:11:00,36.7,-1.7,29.82,SW,225,0.0,0.0,19,0.00,,,0.00,VWS V14.01,2013-03-06 02:11:00,
2013-03-05 21:14:00,36.5,-1.8,29.82,SW,225,0.0,0.0,19,0.00,,,0.00,VWS V14.01,2013-03-06 02:14:00,
2013-03-05 21:15:00,36.5,-1.8,29.82,SW,225,0.0,0.0,19,0.00,,,0.00,VWS V14.01,2013-03-06 02:15:00,
2013-03-05 21:16:00,36.5,-1.8,29.82,SW,225,0.0,0.0,19,0.00,,,0.00,VWS V14.01,2013-03-06 02:16:00,
2013-03-05 21:19:00,36.5,-1.8,29.82,SW,225,0.0,0.0,19,0.00,,,0.00,VWS V14.01,2013-03-06 02:19:00,
2013-03-05 21:20:00,36.5,-1.8,29.82,SW,225,0.0,0.0,19,0.00,,,0.00,VWS V14.01,2013-03-06 02:20:00,
2013-03-05 21:21:00,36.3,-2.0,29.82,SW,225,0.0,0.0,19,0.00,,,0.00,VWS V14.01,2013-03-06 02:21:00,
2013-03-05 21:25:00,36.3,-2.0,29.82,SW,225,0.0,0.0,19,0.00,,,0.00,VWS V14.01,2013-03-06 02:25:00,
2013-03-05 21:26:00,36.3,-2.0,29.82,SW,225,0.0,0.0,19,0.00,,,0.00,VWS V14.01,2013-03-06 02:26:00,
2013-03-05 21:30:00,36.3,-2.0,29.82,SW,225,0.0,0.0,19,0.00,,,0.00,VWS V14.01,2013-03-06 02:30:00,
2013-03-05 21:31:00,36.1,-2.1,29.82,SW,225,0.0,0.0,19,0.00,,,0.00,VWS V14.01,2013-03-06 02:31:00,
2013-03-05 21:32:00,36.1,-2.1,29.82,SW,225,0.0,0.0,19,0.00,,,0.00,VWS V14.01,2013-03-06 02:32:00,
2013-03-05 21:35:00,36.1,-2.1,29.82,SW,225,0.0,0.0,19,0.00,,,0.00,VWS V14.01,2013-03-06 02:35:00,
2013-03-05 21:36:00,36.1,-2.1,29.82,SW,225,0.0,0.0,19,0.00,,,0.00,VWS V14.01,2013-03-06 02:36:00,
2013-03-05 21:37:00,36.1,-2.1,29.82,SW,225,0.0,0.0,19,0.00,,,0.00,VWS V14.01,2013-03-06 02:37:00,
2013-03-05 21:40:00,36.1,-2.1,29.82,SW,225,0.0,0.0,19,0.00,,,0.00,VWS V14.01,2013-03-06 02:40:00,
2013-03-05 21:41:00,36.1,-2.1,29.82,SW,225,0.0,0.0,19,0.00,,,0.00,VWS V14.01,2013-03-06 02:41:00,
2013-03-05 21:42:00,36.1,-2.1,29.82,SW,225,0.0,0.0,19,0.00,,,0.00,VWS V14.01,2013-03-06 02:42:00,
2013-03-05 21:45:00,36.0,-2.3,29.82,SW,225,0.0,0.0,19,0.00,,,0.00,VWS V14.01,2013-03-06 02:45:00,
2013-03-05 21:46:00,36.0,-2.3,29.82,SW,225,0.0,0.0,19,0.00,,,0.00,VWS V14.01,2013-03-06 02:46:00,
2013-03-05 21:47:00,36.0,-2.3,29.82,SW,225,0.0,0.0,19,0.00,,,0.00,VWS V14.01,2013-03-06 02:47:00,
2013-03-05 21:50:00,35.8,-2.4,29.82,SW,225,0.0,0.0,19,0.00,,,0.00,VWS V14.01,2013-03-06 02:50:00,
2013-03-05 21:51:00,35.8,-2.4,29.82,SW,225,0.0,0.0,19,0.00,,,0.00,VWS V14.01,2013-03-06 02:51:00,
2013-03-05 21:52:00,35.8,-2.4,29.82,SW,225,0.0,0.0,19,0.00,,,0.00,VWS V14.01,2013-03-06 02:52:00,
2013-03-05 21:55:00,35.8,-2.4,29.82,SW,225,0.0,0.0,19,0.00,,,0.00,VWS V14.01,2013-03-06 02:55:00,
2013-03-05 21:56:00,35.6,-2.6,29.82,SW,225,0.0,0.0,19,0.00,,,0.00,VWS V14.01,2013-03-06 02:56:00,
2013-03-05 21:57:00,35.6,-2.6,29.82,SW,225,0.0,0.0,19,0.00,,,0.00,VWS V14.01,2013-03-06 02:57:00,
2013-03-05 22:00:00,35.6,-2.6,29.82,SW,225,0.0,0.0,19,0.00,,,0.00,VWS V14.01,2013-03-06 03:00:00,
2013-03-05 22:01:00,35.6,-2.6,29.82,SW,225,0.0,0.0,19,0.00,,,0.00,VWS V14.01,2013-03-06 03:01:00,
2013-03-05 22:02:00,35.4,-1.6,29.82,SW,225,0.0,0.0,20,0.00,,,0.00,VWS V14.01,2013-03-06 03:02:00,
2013-03-05 22:05:00,35.4,-1.6,29.82,SW,225,0.0,0.0,20,0.00,,,0.00,VWS V14.01,2013-03-06 03:05:00,
2013-03-05 22:06:00,35.4,-1.6,29.82,SW,225,0.0,0.0,20,0.00,,,0.00,VWS V14.01,2013-03-06 03:06:00,
2013-03-05 22:07:00,35.4,-1.6,29.82,SW,225,0.0,0.0,20,0.00,,,0.00,VWS V14.01,2013-03-06 03:07:00,
2013-03-05 22:10:00,35.2,-1.8,29.82,SW,225,0.0,0.0,20,0.00,,,0.00,VWS V14.01,2013-03-06 03:10:00,
2013-03-05 22:11:00,35.2,-1.8,29.82,SW,225,0.0,0.0,20,0.00,,,0.00,VWS V14.01,2013-03-06 03:11:00,
2013-03-05 22:12:00,35.2,-1.8,29.82,SW,225,0.0,0.0,20,0.00,,,0.00,VWS V14.01,2013-03-06 03:12:00,
2013-03-05 22:13:00,35.2,-1.8,29.82,SW,225,0.0,0.0,20,0.00,,,0.00,VWS V14.01,2013-03-06 03:13:00,
2013-03-05 22:15:00,35.2,-1.8,29.82,SW,225,0.0,0.0,20,0.00,,,0.00,VWS V14.01,2013-03-06 03:15:00,
2013-03-05 22:16:00,35.2,-1.8,29.82,SW,225,0.0,0.0,20,0.00,,,0.00,VWS V14.01,2013-03-06 03:16:00,
2013-03-05 22:18:00,35.1,0.1,29.82,SW,225,0.0,0.0,22,0.00,,,0.00,VWS V14.01,2013-03-06 03:18:00,
2013-03-05 22:20:00,35.1,0.1,29.82,SW,225,0.0,0.0,22,0.00,,,0.00,VWS V14.01,2013-03-06 03:20:00,
2013-03-05 22:21:00,35.1,0.1,29.82,SW,225,0.0,0.0,22,0.00,,,0.00,VWS V14.01,2013-03-06 03:21:00,
2013-03-05 22:23:00,35.1,0.1,29.82,SW,225,0.0,0.0,22,0.00,,,0.00,VWS V14.01,2013-03-06 03:23:00,
2013-03-05 22:25:00,35.1,0.1,29.82,SW,225,0.0,0.0,22,0.00,,,0.00,VWS V14.01,2013-03-06 03:25:00,
2013-03-05 22:27:00,35.1,0.1,29.82,SW,225,0.0,0.0,22,0.00,,,0.00,VWS V14.01,2013-03-06 03:27:00,
2013-03-05 22:28:00,35.1,0.1,29.82,SW,225,0.0,0.0,22,0.00,,,0.00,VWS V14.01,2013-03-06 03:28:00,
2013-03-05 22:30:00,35.1,0.1,29.82,SW,225,0.0,0.0,22,0.00,,,0.00,VWS V14.01,2013-03-06 03:30:00,
2013-03-05 22:32:00,35.1,0.1,29.82,SW,225,0.0,0.0,22,0.00,,,0.00,VWS V14.01,2013-03-06 03:32:00,
2013-03-05 22:33:00,34.9,-0.1,29.82,SW,225,0.0,0.0,22,0.00,,,0.00,VWS V14.01,2013-03-06 03:33:00,
2013-03-05 22:36:00,34.9,-0.1,29.82,SW,225,0.0,0.0,22,0.00,,,0.00,VWS V14.01,2013-03-06 03:36:00,
2013-03-05 22:37:00,34.9,-0.1,29.82,SW,225,0.0,0.0,22,0.00,,,0.00,VWS V14.01,2013-03-06 03:37:00,
2013-03-05 22:38:00,34.9,-0.1,29.82,SW,225,0.0,0.0,22,0.00,,,0.00,VWS V14.01,2013-03-06 03:38:00,
2013-03-05 22:41:00,34.9,-0.1,29.79,SW,225,0.0,0.0,22,0.00,,,0.00,VWS V14.01,2013-03-06 03:41:00,
2013-03-05 22:42:00,34.9,-0.1,29.79,SW,225,0.0,0.0,22,0.00,,,0.00,VWS V14.01,2013-03-06 03:42:00,
2013-03-05 22:43:00,34.9,-0.1,29.79,SW,225,0.0,0.0,22,0.00,,,0.00,VWS V14.01,2013-03-06 03:43:00,
2013-03-05 22:44:00,34.9,-0.1,29.79,SW,225,0.0,0.0,22,0.00,,,0.00,VWS V14.01,2013-03-06 03:44:00,
2013-03-05 22:46:00,34.9,-0.1,29.79,SW,225,0.0,0.0,22,0.00,,,0.00,VWS V14.01,2013-03-06 03:46:00,
2013-03-05 22:47:00,34.9,-0.1,29.79,SW,225,0.0,0.0,22,0.00,,,0.00,VWS V14.01,2013-03-06 03:47:00,
2013-03-05 22:48:00,34.9,-0.1,29.79,SW,225,0.0,0.0,22,0.00,,,0.00,VWS V14.01,2013-03-06 03:48:00,
2013-03-05 22:49:00,34.9,-0.1,29.79,SW,225,0.0,0.0,22,0.00,,,0.00,VWS V14.01,2013-03-06 03:49:00,
2013-03-05 22:51:00,34.9,-0.1,29.79,SW,225,0.0,0.0,22,0.00,,,0.00,VWS V14.01,2013-03-06 03:51:00,
2013-03-05 22:52:00,34.9,-0.1,29.79,SW,225,0.0,0.0,22,0.00,,,0.00,VWS V14.01,2013-03-06 03:52:00,
2013-03-05 22:53:00,34.9,-0.1,29.79,SW,225,0.0,0.0,22,0.00,,,0.00,VWS V14.01,2013-03-06 03:53:00,
2013-03-05 22:54:00,35.1,2.8,29.79,SW,225,0.0,0.0,25,0.00,,,0.00,VWS V14.01,2013-03-06 03:54:00,
2013-03-05 22:56:00,35.1,2.8,29.79,SW,225,0.0,0.0,25,0.00,,,0.00,VWS V14.01,2013-03-06 03:56:00,
2013-03-05 22:57:00,35.1,2.8,29.79,SW,225,0.0,0.0,25,0.00,,,0.00,VWS V14.01,2013-03-06 03:57:00,
2013-03-05 22:58:00,35.1,2.8,29.79,SW,225,0.0,0.0,25,0.00,,,0.00,VWS V14.01,2013-03-06 03:58:00,
2013-03-05 22:59:00,35.1,2.8,29.79,SW,225,0.0,0.0,25,0.00,,,0.00,VWS V14.01,2013-03-06 03:59:00,
2013-03-05 23:01:00,35.1,2.8,29.79,SW,225,0.0,0.0,25,0.00,,,0.00,VWS V14.01,2013-03-06 04:01:00,
2013-03-05 23:02:00,35.1,2.8,29.79,SW,225,0.0,0.0,25,0.00,,,0.00,VWS V14.01,2013-03-06 04:02:00,
2013-03-05 23:03:00,35.1,2.8,29.79,SW,225,0.0,0.0,25,0.00,,,0.00,VWS V14.01,2013-03-06 04:03:00,
2013-03-05 23:04:00,35.1,2.8,29.79,SW,225,0.0,0.0,25,0.00,,,0.00,VWS V14.01,2013-03-06 04:04:00,
2013-03-05 23:06:00,35.2,3.0,29.79,SW,225,0.0,0.0,25,0.00,,,0.00,VWS V14.01,2013-03-06 04:06:00,
2013-03-05 23:07:00,35.2,4.6,29.79,SW,225,0.0,0.0,27,0.00,,,0.00,VWS V14.01,2013-03-06 04:07:00,
2013-03-05 23:08:00,35.2,4.6,29.79,SW,225,0.0,0.0,27,0.00,,,0.00,VWS V14.01,2013-03-06 04:08:00,
2013-03-05 23:09:00,35.2,4.6,29.79,SW,225,0.0,0.0,27,0.00,,,0.00,VWS V14.01,2013-03-06 04:09:00,
2013-03-05 23:11:00,35.2,4.6,29.79,SW,225,0.0,0.0,27,0.00,,,0.00,VWS V14.01,2013-03-06 04:11:00,
2013-03-05 23:12:00,35.2,4.6,29.79,SW,225,0.0,0.0,27,0.00,,,0.00,VWS V14.01,2013-03-06 04:12:00,
2013-03-05 23:13:00,35.2,4.6,29.79,SW,225,0.0,0.0,27,0.00,,,0.00,VWS V14.01,2013-03-06 04:13:00,
2013-03-05 23:14:00,35.4,4.8,29.79,SW,225,0.0,0.0,27,0.00,,,0.00,VWS V14.01,2013-03-06 04:14:00,
2013-03-05 23:17:00,35.4,4.8,29.79,SW,225,0.0,0.0,27,0.00,,,0.00,VWS V14.01,2013-03-06 04:17:00,
2013-03-05 23:18:00,35.4,4.8,29.79,SW,225,0.0,0.0,27,0.00,,,0.00,VWS V14.01,2013-03-06 04:18:00,
2013-03-05 23:19:00,35.4,4.8,29.79,SW,225,0.0,0.0,27,0.00,,,0.00,VWS V14.01,2013-03-06 04:19:00,
2013-03-05 23:22:00,35.4,4.8,29.79,SW,225,0.0,0.0,27,0.00,,,0.00,VWS V14.01,2013-03-06 04:22:00,
2013-03-05 23:23:00,35.4,4.8,29.79,SW,225,0.0,0.0,27,0.00,,,0.00,VWS V14.01,2013-03-06 04:23:00,
2013-03-05 23:24:00,35.4,7.1,29.79,SW,225,0.0,0.0,30,0.00,,,0.00,VWS V14.01,2013-03-06 04:24:00,
2013-03-05 23:27:00,35.4,7.1,29.79,SW,225,0.0,0.0,30,0.00,,,0.00,VWS V14.01,2013-03-06 04:27:00,
2013-03-05 23:28:00,35.4,7.1,29.79,SW,225,0.0,0.0,30,0.00,,,0.00,VWS V14.01,2013-03-06 04:28:00,
2013-03-05 23:29:00,35.6,6.5,29.79,SW,225,0.0,0.0,29,0.00,,,0.00,VWS V14.01,2013-03-06 04:29:00,
2013-03-05 23:32:00,35.6,6.5,29.79,SW,225,0.0,0.0,29,0.00,,,0.00,VWS V14.01,2013-03-06 04:32:00,
2013-03-05 23:33:00,35.6,6.5,29.79,SW,225,0.0,0.0,29,0.00,,,0.00,VWS V14.01,2013-03-06 04:33:00,
2013-03-05 23:35:00,35.6,6.5,29.79,SW,225,0.0,0.0,29,0.00,,,0.00,VWS V14.01,2013-03-06 04:35:00,
2013-03-05 23:37:00,35.6,6.5,29.79,SW,225,0.0,0.0,29,0.00,,,0.00,VWS V14.01,2013-03-06 04:37:00,
2013-03-05 23:38:00,35.6,6.5,29.79,SW,225,0.0,0.0,29,0.00,,,0.00,VWS V14.01,2013-03-06 04:38:00,
2013-03-05 23:39:00,35.6,7.2,29.79,SW,225,0.0,0.0,30,0.00,,,0.00,VWS V14.01,2013-03-06 04:39:00,
2013-03-05 23:40:00,35.6,7.2,29.79,SW,225,0.0,0.0,30,0.00,,,0.00,VWS V14.01,2013-03-06 04:40:00,
2013-03-05 23:42:00,35.6,7.2,29.79,SW,225,0.0,0.0,30,0.00,,,0.00,VWS V14.01,2013-03-06 04:42:00,
2013-03-05 23:43:00,35.6,7.2,29.79,SW,225,0.0,0.0,30,0.00,,,0.00,VWS V14.01,2013-03-06 04:43:00,
2013-03-05 23:44:00,35.6,7.2,29.79,SW,225,0.0,0.0,30,0.00,,,0.00,VWS V14.01,2013-03-06 04:44:00,
2013-03-05 23:45:00,35.6,7.2,29.79,SW,225,0.0,0.0,30,0.00,,,0.00,VWS V14.01,2013-03-06 04:45:00,
2013-03-05 23:47:00,35.8,7.4,29.79,SW,225,0.0,0.0,30,0.00,,,0.00,VWS V14.01,2013-03-06 04:47:00,
2013-03-05 23:48:00,35.8,7.4,29.79,SW,225,0.0,0.0,30,0.00,,,0.00,VWS V14.01,2013-03-06 04:48:00,
2013-03-05 23:49:00,35.8,7.4,29.79,SW,225,0.0,0.0,30,0.00,,,0.00,VWS V14.01,2013-03-06 04:49:00,
2013-03-05 23:50:00,35.8,7.4,29.79,SW,225,0.0,0.0,30,0.00,,,0.00,VWS V14.01,2013-03-06 04:50:00,
2013-03-05 23:52:00,35.8,7.4,29.79,SW,225,0.0,0.0,30,0.00,,,0.00,VWS V14.01,2013-03-06 04:52:00,
2013-03-05 23:53:00,35.8,7.4,29.79,SW,225,0.0,0.0,30,0.00,,,0.00,VWS V14.01,2013-03-06 04:53:00,
2013-03-05 23:54:00,35.8,7.4,29.79,SW,225,0.0,0.0,30,0.00,,,0.00,VWS V14.01,2013-03-06 04:54:00,
2013-03-05 23:55:00,35.8,7.4,29.76,SW,225,0.0,0.0,30,0.00,,,0.00,VWS V14.01,2013-03-06 04:55:00,
2013-03-05 23:57:00,35.8,7.4,29.76,SW,225,0.0,0.0,30,0.00,,,0.00,VWS V14.01,2013-03-06 04:57:00,
2013-03-05 23:58:00,35.8,7.4,29.76,SW,225,0.0,0.0,30,0.00,,,0.00,VWS V14.01,2013-03-06 04:58:00,
2013-03-05 23:59:00,35.8,7.4,29.76,SW,225,0.0,0.0,30,0.00,,,0.00,VWS V14.01,2013-03-06 04:59:00,